[{"header": {"dx": 0.06612293990616946, "dy": 0.0552356325346848, "nx": 98, "ny": 59, "la1": 35.046912555036876, "la2": 31.78801023549047, "lo1": -121.43107172385933, "lo2": -114.95102361305473, "refTime": "2026041708", "parameterCategory": 1, "parameterNumber": 2}, "data": [5.6, 5.86, 5.67, 5.04, 5.08, 4.45, 4.08, 3.85, 3.22, 2.82, 1.13, -0.57, -1.2, -1.26, -0.54, -1.61, -2.79, -4.46, -4.98, -4.98, -5.4, -3.95, -3.58, -3.13, -2.68, -2.24, -1.34, -1.2, -0.63, 0.0, 0.45, 0.45, 1.34, 1.7, 2.4, 2.91, 3.39, 3.82, 3.51, 3.07, 2.68, 2.17, 2.24, 2.6, 5.24, 7.02, 8.6, 8.46, 6.14, 1.88, 1.6, 2.21, 3.45, 3.45, 3.22, 3.22, 3.84, 4.09, 4.15, 2.6, 1.79, 0.8, 0.0, 0.63, 1.34, 2.24, 3.13, 4.02, 5.36, 7.15, 8.49, 8.49, 7.11, 5.77, 5.64, 7.11, 8.01, 9.28, 10.45, 10.02, 9.11, 7.71, 6.07, 4.24, 5.09, 5.16, 4.02, 3.13, 5.36, 9.26, 10.95, 11.2, 10.87, 10.9, 10.53, 10.28, 9.84, 9.6, 5.8, 5.83, 5.64, 5.02, 5.06, 4.66, 4.71, 4.47, 3.84, 2.8, 1.11, 0.0, -0.63, -0.63, 0.0, 0.0, -1.88, -4.29, -5.37, -5.05, -6.4, -6.36, -4.02, -3.13, -2.8, -2.4, -1.86, -1.7, -1.34, -1.34, -0.89, -0.45, -0.0, -0.0, 1.24, 2.5, 3.07, 3.82, 3.82, 3.53, 3.58, 3.04, 3.58, 5.21, 6.2, 8.37, 9.31, 6.14, 1.58, 1.2, 1.9, 2.84, 3.84, 4.09, 3.16, 3.84, 4.12, 5.09, 5.43, 5.05, 3.32, 1.79, 0.89, 1.34, 1.7, 2.6, 3.13, 4.02, 5.36, 6.66, 8.46, 8.46, 7.6, 7.11, 6.55, 6.98, 8.36, 9.28, 10.45, 10.02, 9.11, 7.71, 6.07, 4.24, 5.09, 5.16, 4.02, 3.13, 5.36, 9.26, 10.95, 11.2, 10.87, 10.9, 10.53, 10.28, 9.84, 9.6, 5.8, 5.6, 5.62, 5.89, 5.26, 5.06, 5.08, 4.71, 4.46, 2.77, 1.08, 0.0, 0.0, 0.0, 0.0, 0.6, 0.0, -2.53, -4.81, -5.24, -5.09, -6.32, -6.8, -4.82, -3.13, -2.5, -1.9, -2.23, -2.12, -2.24, -2.17, -2.12, -1.79, -0.95, -0.0, 1.58, 2.91, 3.53, 4.02, 4.92, 5.02, 6.35, 6.79, 7.01, 6.79, 7.44, 4.6, 1.26, 0.57, 1.9, 2.5, 3.22, 3.49, 3.84, 3.48, 3.48, 4.12, 5.09, 5.43, 5.43, 5.34, 3.74, 2.8, 2.6, 2.4, 2.8, 3.74, 4.73, 5.59, 6.55, 8.36, 8.82, 9.39, 8.46, 7.45, 7.71, 9.11, 10.62, 11.28, 10.75, 9.33, 8.4, 7.71, 4.93, 2.5, 2.8, 3.04, 3.13, 6.98, 11.45, 13.89, 13.04, 11.53, 10.91, 10.28, 9.9, 9.27, 8.8, 5.77, 5.8, 5.83, 5.86, 5.67, 5.26, 5.06, 5.09, 4.45, 3.2, 1.7, 0.0, 0.0, -0.57, 0.0, 0.0, 0.99, -0.54, -3.49, -5.6, -4.4, -4.57, -6.4, -7.06, -6.07, -3.58, -2.91, -1.86, -1.49, -2.24, -2.8, -3.07, -3.32, -2.12, 0.0, 1.34, 2.68, 3.51, 5.44, 6.64, 7.33, 7.9, 7.08, 5.86, 5.3, 4.46, 2.68, 2.5, 2.5, 2.86, 3.07, 3.45, 3.45, 3.49, 3.48, 3.79, 4.84, 5.43, 5.82, 5.86, 4.93, 3.83, 3.49, 2.84, 3.49, 3.84, 4.4, 5.05, 5.86, 7.2, 8.82, 10.02, 10.7, 9.81, 7.56, 7.6, 8.63, 11.62, 12.37, 10.95, 8.93, 8.55, 7.47, 2.21, 0.0, 0.0, 2.12, 5.34, 9.74, 13.99, 15.09, 13.49, 11.53, 10.28, 9.3, 8.3, 8.14, 8.55, 5.77, 5.77, 5.8, 5.83, 5.64, 5.67, 5.04, 5.32, 4.45, 3.4, 1.8, 0.0, -0.54, -0.65, -0.61, 0.0, 0.53, 0.0, -2.53, -6.07, -7.31, -5.26, -4.38, -6.61, -6.55, -6.64, -3.13, -2.24, -0.89, -0.89, -1.24, -2.84, -4.43, -2.79, 0.0, 1.4, 1.98, 4.89, 7.02, 7.18, 6.88, 6.06, 3.82, 4.47, 6.66, 6.66, 6.07, 5.16, 4.24, 3.45, 3.07, 3.45, 2.86, 2.84, 3.84, 4.46, 4.84, 5.05, 6.0, 6.4, 4.93, 3.22, 2.84, 2.79, 4.11, 5.09, 4.46, 4.22, 5.09, 7.07, 9.49, 11.23, 11.89, 11.6, 8.91, 6.25, 6.68, 9.3, 12.56, 11.8, 8.66, 8.05, 6.07, 0.0, -1.4, 0.0, 4.43, 9.67, 13.14, 14.76, 14.13, 12.13, 10.91, 9.27, 7.06, 6.64, 8.14, 9.49, 5.96, 5.77, 6.0, 5.8, 5.83, 5.64, 5.67, 5.29, 4.44, 3.37, 1.65, 0.0, 0.0, 0.0, 0.0, 0.0, 0.0, 0.7, -0.59, -6.08, -9.05, -8.14, -7.74, -6.64, -6.17, -6.36, -4.98, -2.6, -1.24, 0.0, 0.8, 0.6, -0.54, -1.41, 0.0, 0.74, 1.52, 4.56, 6.24, 4.71, 3.0, 2.21, 3.13, 6.22, 8.94, 8.94, 7.15, 5.31, 4.24, 3.32, 2.91, 3.32, 3.07, 3.22, 3.14, 4.09, 4.8, 4.4, 5.43, 6.54, 5.34, 3.22, 2.79, 2.98, 4.43, 5.09, 5.05, 4.22, 3.45, 6.4, 9.54, 11.06, 11.52, 12.42, 12.52, 9.26, 6.08, 6.01, 8.3, 11.72, 9.2, 7.68, 5.3, 0.66, -0.72, 2.28, 7.79, 11.62, 13.67, 13.41, 11.82, 11.52, 11.52, 8.27, 5.09, 6.07, 9.2, 10.23, 5.96, 5.96, 5.77, 6.25, 6.27, 5.86, 5.89, 5.04, 4.66, 3.37, 1.76, 0.0, 0.0, 0.0, 0.0, 0.0, 0.0, 0.7, 0.0, -2.48, -7.54, -8.68, -8.32, -7.42, -5.58, -4.89, -4.19, -2.8, -1.99, -0.61, 0.0, 1.34, 1.34, 0.57, 0.0, 0.0, 0.74, 3.22, 4.43, 2.07, 0.98, 0.96, 3.2, 6.32, 7.37, 4.47, 3.53, 3.82, 4.0, 5.7, 4.82, 2.91, 3.45, 3.49, 3.45, 3.45, 3.83, 3.83, 4.66, 5.86, 4.4, 3.16, 2.3, 3.07, 3.48, 5.09, 6.0, 3.74, 3.07, 6.21, 8.94, 9.83, 10.28, 12.07, 13.39, 12.87, 7.71, 2.53, 3.16, 9.2, 10.4, 9.27, 7.82, 3.78, 3.07, 6.4, 9.43, 11.28, 11.91, 11.08, 10.15, 11.29, 9.8, 4.11, 1.88, 5.09, 9.3, 10.87, 6.43, 6.43, 6.43, 6.46, 6.25, 6.27, 5.86, 5.02, 4.42, 2.86, 1.73, 0.0, 0.0, 0.57, 2.4, 1.24, 1.13, 2.11, 2.6, 1.16, 0.0, -1.9, -5.09, -7.02, -4.83, -3.2, -3.17, -3.14, -4.46, -2.99, -0.65, 0.0, 0.8, 1.9, 1.8, 0.72, 0.0, 1.27, 2.15, 2.68, 2.12, 2.17, 2.13, 0.96, 0.0, -0.0, 1.24, 3.32, 4.66, 6.17, 3.07, 3.07, 3.49, 3.84, 3.84, 3.83, 3.83, 3.83, 4.8, 4.0, 4.22, 2.41, 1.88, 2.3, 3.16, 4.46, 6.94, 5.75, 3.58, 5.75, 8.46, 9.81, 11.06, 12.14, 13.05, 12.35, 9.81, 4.02, 4.24, 9.08, 11.99, 10.45, 8.49, 7.02, 7.11, 8.35, 10.73, 11.63, 10.98, 9.39, 8.51, 6.29, 1.88, 0.0, 0.99, 5.43, 9.3, 9.92, 6.43, 6.43, 6.43, 6.43, 6.46, 6.5, 5.86, 5.23, 4.4, 3.35, 1.71, 0.59, 0.0, 0.0, 1.33, 1.88, 2.07, 2.98, 2.98, 2.53, 2.24, 1.6, 0.0, -2.84, -4.29, -2.8, -3.0, -5.44, -6.32, -4.19, -1.03, 0.0, 0.0, 1.83, 2.2, 1.41, 0.0, 0.0, 1.6, 1.8, 1.98, 0.79, 0.0, -1.79, -1.58, -0.57, -0.0, 1.7, 2.68, 2.86, 4.29, 2.53, 3.48, 3.48, 4.46, 4.46, 4.4, 4.93, 4.8, 4.4, 3.83, 2.41, 1.4, 2.15, 2.84, 5.43, 8.19, 7.56, 3.97, 5.34, 7.45, 9.62, 11.84, 12.18, 11.75, 10.49, 9.81, 9.36, 10.16, 11.89, 13.67, 10.26, 7.61, 7.15, 7.73, 9.08, 10.4, 11.7, 10.78, 8.24, 4.43, 1.7, -0.0, -0.0, 2.4, 6.7, 9.3, 8.93, 6.43, 6.43, 6.64, 6.43, 6.9, 6.5, 6.27, 5.64, 4.57, 3.49, 2.86, 2.33, 1.69, 0.55, 0.0, 0.76, 2.54, 2.31, 1.96, 0.79, 0.65, 0.95, 0.89, 0.0, -2.84, -4.19, -3.63, -5.37, -6.01, -3.2, 0.0, 0.0, 0.0, 0.0, 0.0, 0.7, 1.6, 1.16, 0.8, 0.71, 0.0, -1.58, -1.7, -1.58, -1.49, -1.2, -0.89, -0.0, 0.57, 1.2, 1.88, 2.84, 3.49, 4.09, 4.46, 4.46, 4.93, 5.16, 4.66, 3.74, 3.16, 2.53, 3.22, 2.41, 3.84, 5.34, 7.71, 7.48, 3.97, 4.22, 6.4, 9.46, 11.75, 11.75, 11.42, 10.37, 9.83, 10.25, 11.75, 13.12, 14.93, 14.93, 7.54, 5.64, 6.58, 7.9, 9.5, 10.81, 10.41, 7.85, 4.43, 3.32, 3.07, 2.68, 3.32, 8.06, 9.27, 8.27, 7.1, 7.1, 7.1, 7.1, 6.88, 6.9, 6.27, 5.86, 5.23, 3.94, 3.49, 3.49, 3.52, 2.19, 0.85, 0.75, 1.56, 1.12, 0.55, 0.0, 0.0, -0.65, 0.0, 0.45, -1.6, -3.22, -3.79, -2.68, -3.22, -0.95, 0.0, 0.0, 0.0, 0.0, 0.0, 0.0, 1.8, 1.86, 0.45, 0.45, -1.79, -2.24, -1.2, -0.0, -1.26, -0.95, -0.6, -0.6, -0.0, -0.0, 0.54, 1.9, 3.07, 3.45, 4.0, 4.93, 5.64, 5.31, 4.02, 2.4, 1.33, 2.2, 3.07, 3.07, 3.72, 5.09, 6.7, 6.07, 3.51, 3.32, 6.0, 8.67, 10.18, 10.37, 10.8, 11.28, 10.38, 10.15, 10.8, 12.7, 13.92, 15.26, 14.03, 6.35, 5.0, 6.32, 8.59, 9.82, 9.56, 7.85, 6.54, 5.86, 5.59, 4.66, 6.54, 8.68, 8.6, 7.27, 7.1, 7.1, 7.1, 7.1, 6.88, 7.13, 6.92, 5.86, 5.0, 4.57, 3.94, 4.16, 4.42, 4.45, 3.83, 2.23, 1.71, 1.12, 0.56, -0.54, -1.08, -1.9, -1.7, -1.34, -1.2, -2.68, -2.97, -1.86, -1.2, -1.49, -1.33, -1.26, -1.7, -1.7, -1.2, 0.0, 0.0, -0.63, -1.7, -2.68, -3.07, -3.07, -1.26, -0.0, -1.4, -0.71, -0.8, -0.63, -0.0, 0.45, 0.0, 0.89, 2.24, 3.13, 3.58, 4.02, 5.32, 5.81, 3.13, 0.57, 0.7, 2.4, 2.98, 2.07, 2.4, 2.9, 5.38, 6.24, 5.46, 4.41, 5.77, 7.48, 7.76, 7.47, 8.14, 10.01, 10.15, 9.84, 11.3, 11.94, 11.83, 12.14, 12.87, 9.33, 5.36, 6.01, 8.24, 8.24, 7.94, 7.61, 7.61, 6.98, 6.35, 6.64, 8.63, 10.28, 8.68, 4.43, 7.76, 7.53, 7.1, 7.1, 7.1, 7.13, 7.16, 6.53, 5.64, 5.02, 4.6, 4.6, 5.06, 5.72, 5.71, 5.06, 4.12, 2.82, 2.32, 1.14, 0.0, 0.0, -0.32, -0.89, -1.79, -2.49, -3.6, -3.88, -4.44, -5.7, -3.82, -3.13, -2.91, -3.07, -2.24, -2.24, -2.17, -2.17, -2.63, -3.58, -3.97, -3.53, -1.86, -0.71, -0.71, -0.71, -0.95, -0.89, 0.0, 0.0, 0.0, 0.0, 1.2, 1.88, 2.6, 3.6, 3.9, 4.92, 2.68, -0.0, -0.0, 1.49, 2.3, 0.66, -0.0, 0.72, 2.9, 5.21, 6.44, 6.32, 6.64, 7.28, 7.15, 6.55, 7.47, 8.63, 9.27, 9.9, 10.41, 11.37, 9.82, 9.92, 11.85, 12.79, 8.24, 7.32, 7.97, 7.27, 6.28, 6.64, 7.27, 6.58, 5.64, 7.68, 10.29, 11.28, 7.67, 2.15, 7.5, 7.76, 7.76, 7.53, 7.53, 7.13, 6.9, 6.68, 6.29, 5.67, 5.26, 5.29, 5.7, 5.72, 6.34, 6.28, 5.93, 5.59, 5.01, 4.43, 4.29, 3.35, 2.4, 0.6, -0.6, -2.68, -4.89, -6.16, -6.6, -6.23, -5.81, -2.68, -4.92, -2.68, -2.17, -2.17, -2.24, -1.7, -2.24, -3.07, -3.97, -3.53, -2.54, -2.21, -0.99, -1.4, -0.95, -0.89, -0.6, -0.71, 0.0, 0.0, 0.76, 0.65, 1.49, 1.61, 1.49, 2.98, 2.4, -0.0, -0.88, -0.0, 0.98, -0.0, -0.0, -0.0, 0.76, 1.88, 5.75, 4.74, 6.68, 8.24, 8.91, 8.36, 8.14, 8.3, 7.95, 9.04, 9.3, 9.67, 8.68, 9.3, 10.81, 12.33, 10.35, 9.92, 8.68, 5.37, 4.07, 5.0, 6.32, 5.64, 5.78, 7.82, 10.47, 10.91, 6.64, 2.6, 7.5, 7.76, 7.76, 7.53, 7.53, 7.55, 6.9, 6.92, 6.29, 5.89, 5.69, 5.7, 5.7, 6.08, 6.35, 6.64, 6.59, 6.52, 6.23, 6.51, 6.41, 6.28, 5.08, 3.43, 1.2, -1.24, -4.34, -5.81, -5.81, -5.36, -4.92, -4.47, -4.02, -3.58, -3.13, -2.8, -1.58, 0.45, -1.34, -1.86, -2.91, -3.9, -2.54, -2.8, -2.53, -1.6, -1.6, -1.9, -1.79, -0.95, -0.57, 0.0, 0.0, 0.0, 0.45, 0.45, 0.8, 1.84, 2.4, 0.6, -0.0, -0.0, -0.0, -0.0, -0.0, -0.0, -0.0, 1.58, 0.8, 1.8, 4.43, 8.63, 10.7, 9.83, 7.67, 6.7, 5.05, 5.43, 6.0, 5.43, 5.05, 6.07, 7.54, 8.11, 7.54, 9.92, 7.06, 2.84, 2.73, 4.74, 5.37, 5.35, 5.7, 7.51, 9.9, 6.44, 3.32, 3.32, 8.16, 8.16, 8.18, 8.18, 7.8, 7.55, 7.31, 6.92, 6.94, 6.56, 6.33, 6.34, 6.34, 6.34, 6.98, 7.27, 7.55, 7.51, 7.44, 7.09, 7.35, 7.07, 6.41, 5.29, 4.07, 1.84, -0.54, -2.91, -3.98, -4.47, -4.47, -4.47, -3.58, -3.13, -2.8, -1.26, -0.57, -0.57, -1.58, -2.8, -2.4, -2.17, -2.8, -2.53, -2.84, -2.23, -2.23, -2.53, -1.4, -1.9, -1.79, 0.45, 0.0, -0.0, -0.0, -0.0, 0.45, 1.6, 1.79, 1.58, 0.6, -0.0, -0.0, -1.9, -1.58, -1.79, -1.34, -0.45, -0.0, 2.21, 4.87, 9.62, 11.62, 10.15, 5.05, 2.17, 1.86, 2.8, 2.8, 2.91, 3.07, 3.58, 4.41, 4.66, 4.22, 2.84, 4.46, 1.4, 1.66, 4.01, 6.06, 5.52, 6.17, 8.22, 9.21, 6.63, 4.66, 4.66, 8.16, 8.43, 8.43, 8.18, 8.2, 7.55, 7.57, 7.32, 7.59, 7.22, 6.97, 6.7, 6.7, 6.7, 7.3, 7.59, 7.81, 7.81, 8.08, 8.0, 7.64, 7.35, 7.23, 6.56, 6.1, 5.6, 4.17, 2.53, 0.57, 0.0, -1.7, -2.17, -2.68, -2.24, -1.2, -0.57, -1.2, -1.49, -1.58, -2.8, -2.8, -1.7, -3.39, -1.86, -2.84, -1.27, -1.13, -1.4, -0.0, -0.0, -0.0, -0.0, -0.0, 1.26, 1.26, 1.26, 1.58, 1.9, 1.4, 2.21, 1.9, 1.34, -1.79, -2.68, -1.58, -0.89, -0.45, -0.45, 0.0, 3.04, 8.4, 9.21, 9.3, 3.79, 0.0, -0.65, 0.63, 3.0, 3.72, 2.84, 3.45, 3.97, 4.47, 3.82, 2.6, 0.71, 1.88, 0.0, 3.0, 6.53, 6.28, 4.29, 4.14, 6.87, 8.53, 6.95, 5.06, 5.06, 8.43, 8.43, 8.83, 8.57, 8.58, 8.22, 7.57, 7.32, 7.59, 7.6, 7.33, 7.61, 7.32, 7.3, 7.59, 8.15, 8.15, 8.38, 8.08, 8.0, 8.43, 8.68, 8.15, 7.31, 7.26, 7.26, 7.09, 6.72, 5.4, 3.88, 2.5, 1.26, 0.45, 0.45, -0.0, -0.0, -0.57, -0.8, -0.95, -0.89, -0.89, -1.34, -1.6, -0.95, -1.4, -0.0, -0.0, -0.0, -0.0, -0.0, -0.0, 1.2, 1.9, 1.9, 1.9, 1.9, 1.4, 1.4, 2.21, 2.8, 2.8, 2.24, 1.34, -0.0, -0.0, -1.26, -0.95, 0.45, 1.74, 5.15, 8.34, 6.9, 4.66, 1.58, -0.8, -0.61, 0.59, 3.72, 5.09, 3.83, 3.53, 4.47, 5.59, 2.21, 0.0, 0.0, 0.76, 0.78, 3.7, 6.31, 5.21, 2.98, 3.26, 5.7, 7.44, 6.42, 5.52, 5.52, 8.43, 8.57, 8.57, 8.85, 8.58, 8.59, 7.96, 7.59, 7.59, 7.6, 7.96, 7.95, 7.93, 7.9, 7.59, 7.64, 8.15, 8.38, 8.55, 8.68, 9.42, 9.88, 8.82, 6.64, 5.43, 6.79, 6.8, 5.43, 4.4, 5.6, 5.09, 3.87, 2.68, 2.24, 1.26, 1.26, 0.8, 0.95, 0.45, 0.45, 0.45, 0.45, 0.45, -0.0, -0.0, -0.0, -0.0, -0.0, -0.0, 1.2, 1.2, 1.2, 1.2, 1.4, 1.4, 1.4, 2.53, 2.53, 3.82, 3.39, 3.13, 2.24, -0.0, -0.0, -0.0, -0.0, -0.0, 0.89, 1.86, 5.37, 8.43, 11.15, 13.67, 12.87, 7.12, 2.63, 2.68, 4.02, 6.26, 5.81, 5.86, 6.0, 3.14, 1.88, 0.61, 0.73, 1.41, 2.04, 4.8, 4.4, 3.2, 3.33, 4.71, 4.87, 6.2, 6.05, 5.52, 5.52, 8.57, 8.57, 8.85, 8.85, 8.58, 8.86, 8.87, 8.23, 8.24, 7.96, 8.24, 8.24, 8.53, 8.82, 8.82, 8.73, 8.73, 8.15, 6.7, 6.7, 8.8, 10.55, 9.5, 7.02, 6.06, 5.43, 5.09, 5.86, 5.75, 5.08, 4.6, 3.98, 3.58, 3.13, 2.6, 1.86, 1.86, 2.12, 2.12, 2.24, 2.68, 2.63, 3.07, 2.8, 2.15, 1.2, 1.2, 1.2, 1.2, 1.2, 1.2, 1.2, 1.4, 1.4, 0.57, 1.74, 2.48, 2.53, 2.97, 3.13, 2.24, 1.79, -0.0, -0.0, -0.0, -0.0, 0.79, 1.6, 4.57, 6.94, 9.75, 13.29, 18.35, 19.53, 16.54, 10.75, 6.39, 6.32, 7.03, 6.94, 6.54, 5.86, 3.32, 1.86, 1.2, 1.16, 1.2, 1.49, 2.66, 2.04, 2.18, 4.71, 5.41, 4.68, 4.73, 5.3, 5.63, 5.63, 8.85, 8.85, 8.85, 8.58, 8.86, 8.59, 8.87, 8.87, 8.58, 8.87, 8.56, 8.56, 8.85, 9.42, 9.66, 9.94, 9.66, 8.73, 7.81, 7.68, 9.3, 9.86, 9.5, 8.65, 7.51, 6.87, 6.15, 5.75, 5.08, 4.6, 3.87, 3.98, 3.58, 3.58, 3.07, 2.63, 2.6, 2.17, 2.6, 2.6, 3.07, 3.07, 3.32, 3.32, 2.91, 2.8, 1.9, 1.9, 1.9, 1.9, 1.9, 1.9, 1.4, 1.4, 1.6, 1.74, 2.68, 3.16, 3.2, 2.24, 0.89, -0.0, -0.0, -0.0, -0.0, 0.88, 0.88, 1.7, 3.33, 5.69, 6.95, 10.91, 15.36, 15.93, 13.67, 10.9, 8.25, 8.56, 7.52, 6.7, 6.4, 5.64, 4.02, 3.58, 2.17, 1.86, 1.79, 1.79, 2.68, 2.15, 3.15, 5.4, 5.4, 4.12, 3.46, 4.23, 4.87, 4.87, 8.85, 8.85, 9.14, 8.86, 8.86, 8.87, 9.21, 9.19, 9.19, 9.17, 9.17, 9.13, 9.13, 9.66, 10.01, 10.51, 10.15, 9.86, 9.94, 10.15, 10.41, 9.76, 9.1, 8.43, 8.27, 8.15, 7.48, 7.01, 6.3, 5.57, 5.24, 4.88, 4.44, 4.47, 4.02, 4.02, 3.58, 3.53, 3.09, 3.09, 3.53, 3.53, 3.39, 3.39, 3.32, 2.8, 2.4, 1.58, 1.58, 1.58, 1.9, 1.9, 1.4, 1.4, 1.4, 1.13, 1.66, 2.2, 2.84, 1.34, -0.0, -0.0, -0.0, -0.0, -0.0, 0.88, 0.88, 0.81, 1.72, 1.25, 2.06, 6.7, 11.53, 10.01, 2.35, 4.92, 7.08, 7.76, 6.95, 6.29, 6.06, 5.05, 4.66, 3.97, 3.51, 2.91, 2.4, 2.5, 4.71, 4.74, 5.04, 4.2, 2.72, 1.13, 1.35, 2.82, 3.7, 3.7, 9.14, 9.14, 9.5, 9.21, 9.16, 8.87, 9.21, 9.5, 9.19, 9.48, 10.06, 9.72, 9.72, 10.01, 10.23, 10.51, 10.51, 10.7, 10.7, 11.34, 11.22, 10.91, 9.71, 9.01, 8.51, 8.51, 8.72, 8.48, 8.17, 7.84, 6.94, 6.6, 6.23, 5.78, 5.36, 5.36, 5.36, 4.92, 4.44, 4.44, 4.43, 3.98, 3.87, 3.87, 3.82, 3.07, 3.39, 2.4, 2.24, 1.58, 2.4, 2.4, 2.21, 1.4, 1.4, 1.13, -0.0, 0.73, 0.85, 1.26, 0.57, -0.0, -0.0, -0.0, 0.81, 0.81, 0.81, 0.73, -0.0, -0.76, -1.14, 0.71, 8.36, 1.79, -2.23, 0.0, 2.11, 5.02, 6.4, 6.2, 5.86, 5.3, 4.46, 3.84, 3.49, 2.84, 2.51, 3.9, 4.56, 2.15, 3.15, 1.24, 1.2, 0.89, 0.99, 2.07, 3.47, 3.47, 9.21, 9.21, 9.21, 9.21, 9.21, 9.21, 9.5, 9.19, 9.48, 9.77, 10.06, 10.3, 10.3, 10.59, 10.59, 11.07, 11.07, 11.34, 11.34, 11.5, 11.36, 11.41, 11.12, 10.42, 9.51, 9.21, 9.21, 8.96, 8.96, 8.64, 8.33, 7.87, 7.51, 7.13, 6.68, 6.71, 6.26, 6.26, 5.81, 5.78, 5.33, 4.89, 4.88, 4.44, 4.3, 3.82, 3.82, 3.39, 3.13, 2.8, 2.97, 2.8, 2.8, 2.21, 2.21, 1.4, -0.0, -0.0, -0.0, 1.24, 1.49, 0.71, -0.0, -0.0, 0.88, 0.81, 0.81, 1.14, -0.0, -0.0, -0.8, 7.31, 12.49, 11.08, 7.31, 2.68, 1.4, 1.18, 4.18, 5.02, 5.6, 5.39, 4.87, 4.67, 3.9, 2.88, 3.0, 2.88, 0.71, -0.0, 0.45, 0.6, 1.49, 2.17, 2.24, 2.21, 2.79, 2.79, 9.21, 9.21, 9.21, 9.5, 9.5, 9.21, 9.5, 9.19, 9.48, 9.77, 10.06, 10.3, 10.65, 11.16, 11.16, 11.44, 11.24, 11.5, 11.5, 11.75, 11.6, 11.6, 11.41, 11.12, 10.83, 10.0, 9.7, 9.86, 9.39, 9.11, 8.67, 8.77, 8.3, 7.97, 7.58, 7.13, 7.15, 7.15, 6.71, 6.26, 6.26, 5.78, 5.34, 5.33, 4.88, 4.44, 4.44, 4.44, 4.43, 3.98, 3.98, 3.9, 3.39, 2.8, 2.8, 1.2, -0.0, -0.0, -0.0, 1.4, 1.58, 1.24, -0.0, -0.0, -0.0, -0.0, 0.73, 0.81, 0.76, 1.2, 2.6, 6.28, 12.96, 15.18, 16.29, 15.24, 11.06, 4.02, 3.45, 3.95, 5.6, 6.44, 7.09, 5.52, 3.55, 2.0, 1.8, 0.61, 0.0, -0.57, -0.63, 0.63, 1.79, 2.68, 3.13, 3.53, 2.91, 2.91, 9.21, 9.21, 9.5, 9.5, 9.5, 9.5, 9.5, 9.5, 9.77, 9.77, 10.06, 10.3, 10.88, 11.16, 11.16, 11.62, 11.62, 11.88, 11.75, 11.75, 11.99, 11.6, 11.41, 11.21, 11.33, 10.91, 10.6, 10.18, 9.86, 9.57, 9.11, 9.23, 8.77, 8.41, 7.97, 7.58, 7.58, 7.15, 7.15, 6.71, 6.71, 6.26, 5.81, 5.78, 5.33, 4.89, 4.89, 4.89, 4.89, 4.88, 4.88, 4.44, 4.47, 3.39, 3.39, 3.2, 2.4, 1.58, -0.0, -0.0, 2.53, 1.49, 0.71, -0.0, -0.0, -0.0, -0.0, -0.0, 2.6, 3.48, 4.47, 7.15, 10.28, 13.96, 15.36, 15.12, 15.7, 12.22, 3.45, 1.47, 3.96, 6.27, 7.67, 6.23, 2.48, 2.15, 1.88, 1.61, 0.63, -0.0, -0.89, 0.0, 1.49, 2.6, 3.07, 3.58, 3.58, 3.58, 9.21, 9.21, 9.5, 9.5, 9.21, 9.8, 9.8, 9.8, 9.77, 9.77, 10.3, 10.3, 10.88, 11.16, 11.16, 11.62, 11.62, 11.88, 12.03, 11.88, 11.99, 11.82, 11.41, 11.62, 11.39, 11.39, 11.08, 10.66, 10.34, 9.91, 10.01, 10.13, 9.68, 9.32, 8.87, 8.86, 8.47, 8.47, 8.03, 7.6, 7.6, 7.15, 6.71, 6.26, 5.81, 5.78, 5.36, 5.36, 5.36, 5.36, 5.36, 4.92, 4.47, 4.43, 2.68, 2.17, 3.58, 2.24, 0.45, -0.0, 2.21, 2.84, 1.2, -0.0, -0.0, -0.0, -0.0, -0.0, 1.8, 4.22, 5.75, 6.71, 8.94, 11.06, 11.21, 12.47, 13.75, 11.58, 3.58, 0.0, 1.52, 5.2, 6.44, 5.52, 3.64, 3.48, 2.84, 2.53, 2.17, 0.89, 0.0, 0.0, 0.71, 1.24, 2.15, 3.07, 3.53, 3.53, 9.5, 9.5, 9.5, 9.21, 9.5, 9.8, 9.8, 10.09, 10.09, 10.3, 10.3, 10.65, 11.16, 11.16, 11.44, 11.62, 11.88, 11.88, 12.03, 11.88, 11.99, 11.82, 11.62, 11.62, 11.81, 11.39, 11.56, 11.13, 11.24, 10.94, 10.5, 10.58, 10.14, 9.68, 9.32, 9.32, 8.87, 8.92, 8.47, 8.03, 8.05, 7.6, 7.15, 7.15, 6.68, 6.68, 6.71, 6.26, 5.81, 5.81, 5.81, 5.36, 4.92, 4.92, 4.47, 2.68, 4.02, 3.13, 0.89, 1.26, 2.54, 3.2, 1.98, -0.0, -0.0, -0.0, -0.0, 0.0, 0.45, 3.13, 5.29, 7.15, 8.46, 8.9, 9.83, 11.15, 12.42, 10.28, 3.13, 0.0, 0.8, 3.37, 4.98, 5.39, 5.13, 4.94, 4.43, 3.07, 3.07, 2.24, 0.89, 0.89, 0.57, 1.0, 1.9, 2.91, 3.53, 3.53, 9.5, 9.5, 9.5, 9.21, 9.5, 9.8, 9.8, 10.09, 10.36, 10.65, 10.65, 11.16, 11.16, 10.8, 11.07, 11.24, 11.88, 11.88, 12.14, 11.75, 11.6, 11.82, 11.41, 11.62, 11.81, 11.39, 11.39, 11.13, 11.24, 10.81, 10.94, 10.47, 10.58, 10.14, 9.68, 9.77, 9.32, 9.32, 8.92, 8.47, 8.47, 8.05, 7.6, 5.36, 4.92, 6.68, 7.15, 7.15, 6.71, 6.26, 5.81, 5.81, 5.36, 4.92, 4.92, 4.47, 4.47, 3.58, 1.79, 1.34, 3.47, 3.95, 1.6, 0.99, -0.0, -0.0, 0.66, -0.0, 0.0, 0.6, 4.47, 7.89, 9.39, 9.7, 9.9, 12.16, 11.53, 9.6, 5.77, 1.86, 0.0, 2.28, 4.02, 5.02, 4.8, 5.0, 2.84, 2.8, 3.07, 2.24, 1.2, 0.63, 2.24, 2.63, 3.07, 3.53, 4.02, 4.02, 9.5, 9.5, 9.21, 9.21, 9.5, 9.8, 9.8, 10.09, 10.36, 10.65, 10.65, 11.16, 11.16, 11.07, 11.07, 11.5, 11.88, 11.5, 11.75, 11.36, 11.6, 11.82, 11.41, 11.41, 11.62, 11.39, 11.39, 11.08, 11.08, 10.81, 10.81, 10.47, 10.47, 10.14, 10.13, 9.68, 9.77, 9.32, 9.32, 8.92, 8.47, 8.03, 7.58, 7.6, 7.15, 5.81, 6.26, 7.15, 6.68, 6.26, 5.81, 5.81, 5.36, 5.36, 5.36, 4.92, 4.92, 4.92, 2.68, 2.24, 4.02, 4.92, 2.24, 1.49, -0.79, -0.7, -0.0, 0.98, 0.63, 0.0, 2.97, 6.94, 11.37, 12.42, 11.87, 12.16, 12.52, 10.28, 8.91, 7.11, 2.5, 2.12, 3.49, 4.63, 4.45, 2.51, 2.4, 2.24, 2.68, 2.17, 0.95, 1.2, 2.24, 3.58, 5.36, 5.81, 5.78, 5.78, 9.5, 9.5, 9.21, 9.5, 9.8, 9.8, 9.8, 10.09, 10.09, 10.65, 10.65, 11.16, 11.44, 11.07, 11.24, 11.5, 11.5, 11.75, 11.75, 11.6, 11.6, 11.82, 11.41, 11.62, 11.62, 11.21, 11.33, 11.08, 10.81, 10.81, 10.81, 10.77, 10.34, 10.04, 10.01, 9.68, 9.68, 9.24, 9.32, 8.87, 8.86, 8.47, 8.03, 7.58, 7.13, 6.26, 6.71, 7.6, 7.15, 6.71, 6.26, 6.26, 5.81, 5.36, 5.36, 5.36, 5.36, 5.36, 4.92, 2.68, 2.68, 3.58, 2.68, 2.53, -0.0, -2.84, -2.3, 1.14, 4.74, 1.86, 1.26, 4.81, 9.6, 15.1, 17.27, 14.21, 10.91, 9.3, 10.15, 12.58, 10.84, 4.73, 2.18, 3.08, 3.73, 3.98, 4.77, 4.0, 4.93, 3.6, 2.4, 2.12, 2.68, 4.02, 5.81, 6.67, 6.67, 6.67, 9.21, 9.21, 9.5, 9.8, 9.8, 9.8, 10.09, 10.09, 10.09, 10.65, 10.65, 11.16, 11.16, 11.07, 11.5, 11.5, 11.75, 11.75, 11.99, 11.6, 11.82, 11.82, 11.41, 11.62, 11.62, 11.39, 11.33, 10.49, 9.83, 9.86, 10.34, 10.34, 10.34, 10.01, 10.01, 9.57, 9.68, 9.68, 9.23, 9.32, 8.86, 8.42, 8.41, 7.97, 7.97, 7.97, 8.47, 8.05, 7.6, 7.15, 7.15, 6.71, 6.71, 6.26, 6.26, 5.36, 5.36, 5.36, 5.36, 5.36, 3.13, 3.13, 2.17, 3.04, 2.6, -1.0, -3.22, -1.6, 3.79, 5.75, 1.9, 4.22, 7.2, 13.15, 19.56, 18.76, 8.55, 3.79, 6.32, 11.73, 14.61, 11.75, 5.64, 4.34, 4.92, 6.23, 7.87, 8.48, 7.28, 6.36, 5.16, 3.53, 3.13, 4.02, 5.78, 6.67, 6.67, 6.67, 9.21, 9.21, 9.5, 9.8, 9.8, 9.8, 10.09, 10.09, 10.09, 10.65, 10.65, 10.94, 10.8, 11.07, 11.5, 11.5, 11.75, 11.75, 11.99, 11.6, 11.82, 11.82, 12.04, 11.62, 11.62, 11.39, 11.33, 10.91, 10.6, 9.33, 9.43, 9.86, 9.86, 10.01, 10.01, 9.57, 9.68, 9.68, 9.23, 9.23, 8.87, 8.86, 8.42, 8.41, 7.97, 8.41, 8.47, 8.49, 8.05, 8.05, 7.6, 7.6, 7.15, 7.15, 6.71, 6.71, 6.71, 5.81, 5.81, 5.81, 5.81, 3.58, 4.77, 2.6, 5.29, 2.53, -0.79, -0.79, 1.13, 3.79, 4.19, 2.4, 6.65, 11.62, 18.76, 23.47, 12.42, 1.49, 1.94, 7.61, 12.08, 13.56, 11.54, 9.36, 8.94, 9.39, 10.27, 10.22, 9.72, 7.45, 6.98, 6.22, 5.36, 4.92, 6.26, 7.11, 7.12, 7.12, 9.5, 9.5, 9.8, 9.8, 9.8, 10.09, 10.09, 10.09, 10.09, 10.65, 10.3, 10.59, 10.59, 10.8, 11.07, 11.5, 11.5, 11.75, 11.75, 11.6, 11.6, 11.82, 11.82, 11.62, 11.62, 11.81, 11.39, 11.33, 11.39, 11.08, 10.34, 10.34, 9.86, 10.01, 10.01, 9.57, 9.57, 9.68, 9.23, 9.23, 8.79, 8.86, 8.42, 8.42, 8.42, 8.42, 8.47, 8.47, 8.49, 8.05, 8.05, 8.05, 7.6, 7.6, 7.15, 7.15, 7.15, 6.71, 6.71, 6.71, 6.26, 4.92, 4.77, 5.26, 5.16, 4.54, 2.47, 0.82, 1.3, 3.49, 4.74, 5.75, 7.6, 11.15, 16.07, 20.87, 19.8, 13.05, 7.12, 6.59, 8.93, 10.13, 11.09, 11.42, 10.98, 11.04, 10.67, 10.71, 10.28, 9.39, 8.01, 8.01, 7.6, 7.6, 7.57, 7.6, 8.05, 8.05, 9.5, 9.5, 9.8, 9.8, 10.09, 10.09, 10.09, 10.09, 10.65, 10.65, 10.3, 10.59, 10.59, 10.59, 11.07, 11.34, 11.34, 11.75, 11.36, 11.6, 11.6, 11.6, 11.82, 11.41, 11.62, 11.62, 11.39, 11.39, 11.39, 11.08, 11.08, 10.81, 10.34, 9.91, 10.01, 10.01, 9.57, 9.57, 9.23, 9.23, 9.23, 8.87, 8.86, 8.42, 8.42, 8.42, 8.47, 8.47, 8.47, 8.47, 8.03, 8.05, 8.05, 7.6, 7.6, 7.15, 7.15, 7.15, 7.15, 7.13, 6.23, 6.61, 5.26, 5.26, 5.01, 4.74, 2.64, 2.47, 2.29, 3.47, 4.74, 6.8, 9.54, 12.07, 13.86, 15.57, 17.04, 18.04, 18.39, 15.63, 10.6, 7.92, 6.96, 8.0, 9.68, 10.34, 10.47, 10.05, 9.28, 8.91, 7.6, 6.71, 8.05, 8.49, 8.02, 8.01, 8.49, 8.49, 9.5, 9.5, 9.8, 10.09, 10.09, 10.09, 10.09, 10.36, 10.65, 10.3, 10.3, 10.59, 10.59, 10.59, 11.07, 11.07, 11.34, 10.96, 11.22, 11.22, 11.6, 11.6, 11.82, 11.41, 11.41, 11.62, 11.21, 11.39, 11.33, 11.08, 11.08, 10.66, 10.81, 10.34, 10.34, 10.01, 10.01, 9.57, 9.57, 9.23, 9.23, 8.79, 8.86, 8.42, 8.42, 8.47, 8.47, 8.47, 8.47, 8.47, 8.47, 8.03, 8.03, 7.6, 7.6, 7.6, 7.15, 7.15, 7.15, 7.15, 7.13, 6.68, 6.61, 4.15, 3.84, 4.43, 3.35, 2.4, 2.4, 3.35, 5.75, 6.8, 10.6, 12.58, 13.32, 12.05, 12.3, 15.41, 19.52, 21.59, 17.42, 9.74, 4.09, 3.16, 4.66, 6.36, 6.36, 5.64, 5.64, 5.77, 4.43, 4.02, 5.36, 6.21, 7.12, 7.01, 8.02, 8.02, 9.48, 9.48, 9.77, 9.77, 10.09, 10.09, 10.09, 10.65, 10.65, 10.3, 10.3, 10.59, 10.59, 10.87, 11.07, 11.07, 10.96, 10.96, 11.22, 11.22, 11.47, 11.47, 11.2, 11.41, 11.41, 11.41, 11.21, 11.12, 11.33, 10.91, 10.91, 11.08, 10.66, 10.77, 10.34, 10.34, 10.01, 10.01, 9.57, 9.67, 9.23, 9.23, 8.77, 7.12, 8.03, 8.47, 8.86, 8.86, 8.42, 8.47, 8.47, 8.03, 8.03, 8.03, 7.58, 7.6, 7.6, 7.15, 7.15, 7.15, 7.15, 6.68, 6.61, 4.15, 2.23, 4.29, 1.9, 1.74, 2.3, 3.48, 5.21, 6.8, 8.15, 13.02, 14.49, 12.42, 9.39, 12.5, 18.31, 20.12, 18.72, 15.05, 10.26, 4.87, 3.07, 3.39, 3.82, 3.82, 3.82, 3.53, 3.53, 3.58, 3.58, 4.41, 4.41, 5.31, 5.64, 7.48, 9.48, 9.48, 9.77, 9.77, 9.77, 10.06, 10.3, 10.3, 10.3, 10.3, 10.59, 10.59, 10.59, 10.87, 11.07, 11.07, 10.96, 10.96, 11.22, 11.22, 10.83, 11.08, 11.08, 11.08, 11.31, 11.31, 11.12, 11.12, 11.12, 10.91, 10.91, 10.91, 10.6, 10.6, 10.34, 10.34, 9.91, 10.01, 9.57, 9.57, 9.23, 9.23, 8.77, 7.12, 8.03, 8.86, 8.87, 8.86, 8.42, 8.42, 8.47, 8.03, 8.03, 8.03, 8.03, 7.58, 7.6, 7.15, 7.15, 7.15, 7.15, 6.68, 6.61, 3.47, 4.15, 4.09, 3.48, 2.68, 2.68, 3.16, 4.19, 5.75, 7.81, 11.75, 16.55, 15.49, 11.52, 11.4, 14.13, 14.79, 13.34, 12.52, 12.94, 10.26, 6.26, 4.47, 4.02, 3.58, 3.53, 3.53, 3.53, 3.53, 3.53, 4.41, 4.41, 4.3, 4.73, 5.64, 9.48, 9.48, 9.77, 10.06, 10.06, 10.06, 10.3, 10.3, 10.3, 10.59, 10.59, 10.59, 10.59, 10.87, 11.07, 10.7, 10.96, 10.96, 11.22, 10.83, 10.83, 11.08, 11.08, 11.08, 11.31, 10.91, 10.91, 11.12, 11.12, 10.71, 10.91, 10.91, 10.42, 10.6, 10.18, 10.18, 10.29, 9.86, 10.01, 9.57, 9.54, 9.23, 8.79, 8.33, 7.56, 8.87, 9.23, 8.77, 8.33, 8.41, 7.97, 7.97, 8.03, 8.03, 7.58, 7.58, 7.58, 7.15, 7.15, 6.71, 6.71, 6.68, 5.7, 5.7, 4.77, 4.09, 2.23, 2.21, 1.58, 3.22, 4.22, 5.2, 6.4, 8.54, 13.39, 15.74, 16.34, 14.49, 10.73, 5.02, 2.79, 4.0, 7.48, 8.49, 8.01, 7.15, 7.15, 6.26, 4.87, 5.31, 4.24, 4.24, 4.24, 5.86, 6.07, 5.64, 5.64, 4.73, 9.48, 9.48, 10.06, 10.06, 10.06, 10.06, 10.3, 10.3, 10.59, 10.59, 10.59, 10.59, 10.87, 10.87, 11.07, 10.7, 10.96, 10.96, 11.22, 10.83, 10.83, 11.08, 11.08, 11.08, 10.91, 10.91, 10.91, 11.12, 11.12, 10.71, 10.71, 10.83, 10.42, 10.42, 10.18, 10.18, 10.12, 9.86, 9.86, 9.43, 9.54, 9.11, 9.11, 9.11, 9.23, 8.36, 8.77, 8.33, 8.3, 7.97, 7.97, 7.97, 8.03, 7.58, 7.58, 7.58, 7.58, 7.15, 6.71, 6.71, 6.71, 6.23, 5.81, 4.77, 4.34, 4.34, 3.2, 3.72, 2.98, 3.58, 4.8, 5.2, 5.81, 5.59, 6.95, 12.11, 17.1, 20.05, 15.99, 8.14, 3.07, 3.13, 5.36, 8.05, 8.49, 8.05, 7.57, 7.57, 7.92, 7.92, 6.79, 5.44, 5.05, 6.94, 7.35, 6.94, 6.28, 6.28, 9.72, 9.72, 9.72, 9.72, 10.06, 10.06, 10.59, 10.59, 10.59, 10.59, 10.59, 10.87, 10.87, 11.07, 11.07, 10.96, 10.96, 10.96, 11.22, 10.83, 10.83, 11.08, 11.08, 11.08, 10.91, 10.91, 10.91, 10.91, 10.71, 10.71, 10.62, 10.83, 10.42, 10.42, 10.0, 10.12, 9.7, 9.7, 9.86, 9.43, 9.39, 9.54, 9.11, 9.11, 9.54, 9.68, 9.32, 8.87, 8.42, 8.42, 8.41, 7.97, 7.97, 7.97, 7.58, 7.58, 7.13, 6.71, 6.71, 6.26, 6.26, 6.26, 5.34, 5.36, 4.47, 4.24, 4.24, 3.82, 2.6, 3.22, 5.09, 5.09, 4.8, 4.11, 4.74, 9.2, 13.99, 19.19, 20.67, 18.33, 14.88, 14.1, 13.86, 14.13, 12.79, 10.7, 7.6, 6.55, 7.28, 7.76, 7.06, 6.13, 5.6, 6.07, 6.94, 6.0, 6.0, 6.0, 9.72, 9.72, 9.72, 9.72, 10.01, 10.01, 10.59, 10.23, 10.23, 10.59, 10.87, 10.51, 10.51, 10.7, 10.7, 10.96, 10.96, 10.96, 11.22, 10.83, 10.83, 11.08, 11.08, 10.68, 10.91, 10.91, 10.8, 10.4, 10.62, 10.62, 10.62, 10.42, 10.42, 10.42, 10.0, 10.12, 9.7, 9.7, 9.7, 9.39, 9.39, 9.39, 9.11, 9.11, 9.11, 9.68, 9.68, 9.32, 9.32, 8.86, 8.42, 8.42, 8.41, 7.97, 7.97, 7.58, 7.13, 6.71, 6.71, 6.26, 6.26, 5.81, 5.81, 5.36, 4.47, 4.47, 4.24, 4.24, 1.58, 4.15, 5.29, 4.85, 3.93, 3.63, 4.81, 6.44, 10.68, 15.35, 18.29, 18.35, 17.99, 18.86, 19.46, 18.64, 16.24, 13.7, 10.62, 6.71, 4.93, 5.43, 4.52, 4.52, 4.09, 5.43, 5.43, 4.84, 4.84, 4.84, 9.72, 9.72, 9.72, 10.01, 10.01, 10.23, 10.23, 10.23, 10.51, 10.51, 10.51, 10.51, 10.51, 10.7, 10.7, 10.96, 10.96, 10.96, 10.96, 10.83, 10.83, 11.08, 11.08, 10.68, 10.68, 10.8, 10.8, 10.4, 10.62, 10.62, 10.62, 10.21, 10.42, 10.0, 9.92, 10.12, 9.7, 9.7, 9.7, 9.39, 9.39, 9.39, 8.96, 8.96, 9.11, 9.11, 9.23, 9.23, 9.32, 9.32, 8.87, 8.86, 8.42, 8.42, 8.41, 7.58, 7.58, 7.13, 6.71, 6.26, 6.26, 5.81, 5.81, 5.36, 5.36, 4.92, 4.34, 3.6, 1.86, 4.15, 5.2, 4.15, 2.76, 3.47, 4.29, 5.77, 8.63, 12.29, 14.46, 15.12, 16.68, 19.13, 21.02, 19.84, 17.07, 15.72, 14.84, 12.33, 7.57, 3.6, 5.37, 3.14, 3.84, 4.12, 3.84, 2.84, 2.84, 2.84, 9.72, 9.72, 9.72, 10.01, 10.01, 10.23, 10.23, 10.51, 10.51, 10.51, 10.51, 10.51, 10.51, 10.7, 10.96, 10.96, 10.96, 10.96, 10.96, 10.83, 10.83, 10.83, 11.08, 10.55, 10.55, 10.8, 10.8, 10.4, 10.4, 10.62, 10.62, 10.21, 10.42, 9.92, 9.92, 10.12, 9.7, 9.7, 9.7, 9.21, 9.39, 9.39, 8.96, 8.96, 9.11, 9.11, 9.11, 9.23, 9.23, 9.23, 8.87, 8.87, 8.86, 8.86, 8.42, 7.97, 7.58, 7.13, 6.68, 6.71, 6.26, 6.26, 5.81, 5.81, 5.36, 5.81, 4.77, 3.6, 4.15, 4.85, 5.09, 4.11, 2.29, 2.47, 4.01, 5.06, 7.07, 9.84, 10.87, 11.25, 13.41, 18.72, 21.65, 20.14, 17.73, 16.65, 16.44, 15.39, 11.62, 9.33, 4.98, 2.53, 2.84, 2.79, 2.84, 2.15, 2.15, 2.15, 9.72, 9.72, 9.72, 10.01, 10.01, 10.23, 10.23, 10.51, 10.51, 10.51, 10.51, 10.51, 10.51, 10.7, 10.96, 10.96, 10.96, 10.96, 10.96, 11.22, 10.83, 10.83, 10.68, 10.55, 10.55, 10.55, 10.8, 10.4, 10.4, 10.4, 10.62, 10.21, 10.21, 9.92, 9.92, 9.92, 9.7, 9.7, 9.7, 9.21, 9.39, 9.39, 8.96, 8.96, 8.96, 9.11, 9.11, 9.11, 9.23, 8.79, 8.79, 8.77, 8.86, 8.86, 8.42, 8.42, 7.97, 7.58, 7.13, 6.68, 6.71, 6.26, 6.26, 5.81, 5.34, 5.81, 4.77, 4.24, 4.66, 4.22, 4.19, 3.22, 2.6, 2.4, 2.98, 4.01, 5.77, 8.06, 8.68, 8.6, 10.9, 16.72, 20.67, 20.05, 19.29, 17.85, 15.69, 12.89, 8.91, 1.7, 0.95, 0.54, 1.16, 1.4, 0.65, 0.0, 0.0, 0.0, 9.72, 9.72, 9.72, 10.01, 10.01, 10.23, 10.23, 10.51, 10.51, 10.51, 10.51, 10.51, 10.51, 10.7, 10.96, 10.96, 10.96, 10.96, 10.96, 10.96, 10.83, 10.68, 10.68, 10.55, 10.55, 10.55, 10.55, 10.4, 10.4, 10.4, 10.4, 10.21, 10.21, 9.71, 9.92, 9.92, 9.51, 9.7, 9.7, 9.21, 9.39, 9.39, 8.96, 8.96, 8.96, 9.11, 9.11, 9.11, 9.11, 8.79, 8.77, 8.77, 8.77, 8.77, 8.86, 8.42, 8.41, 7.97, 7.58, 7.13, 6.68, 6.71, 6.26, 5.81, 5.36, 5.81, 4.77, 4.24, 3.72, 2.23, 2.23, 3.48, 2.95, 1.83, 1.7, 3.47, 5.06, 6.73, 7.97, 8.65, 9.3, 13.14, 17.07, 18.85, 20.05, 18.78, 14.79, 9.74, 1.7, -1.2, -2.6, -1.34, -0.6, -0.6, -1.26, -2.17, -2.17, -2.17, 10.06, 10.06, 10.06, 10.01, 10.01, 10.23, 10.23, 10.51, 10.51, 10.51, 10.51, 10.51, 10.51, 10.7, 10.96, 10.96, 10.96, 10.96, 10.96, 10.96, 10.83, 10.68, 10.68, 10.3, 10.55, 10.55, 10.55, 10.16, 10.4, 10.4, 10.4, 10.0, 10.11, 9.71, 9.71, 9.92, 9.51, 9.51, 9.7, 9.21, 9.39, 9.39, 9.39, 8.96, 8.96, 8.96, 9.11, 9.11, 9.11, 9.11, 8.64, 8.77, 8.77, 8.77, 8.77, 8.42, 8.42, 7.97, 7.97, 7.58, 7.13, 6.68, 6.26, 6.26, 5.81, 5.36, 4.85, 2.8, 2.23, 2.23, 3.47, 3.9, 2.41, 0.81, 0.82, 2.47, 3.9, 4.95, 6.24, 7.59, 8.65, 9.27, 11.76, 16.01, 20.32, 19.93, 9.74, 4.02, 2.17, -0.6, -2.68, -3.32, -3.07, -2.68, -2.68, -2.68, -2.68, -2.68, 10.06, 10.06, 10.06, 10.01, 10.01, 10.23, 10.23, 10.51, 10.51, 10.51, 10.51, 10.51, 10.51, 10.7, 10.96, 10.96, 10.96, 10.96, 10.96, 10.96, 10.58, 10.68, 10.68, 10.3, 10.55, 10.55, 10.55, 10.16, 10.4, 10.4, 10.4, 10.0, 10.11, 10.11, 9.71, 9.71, 9.51, 9.51, 9.42, 9.63, 9.21, 9.39, 9.39, 8.96, 8.96, 8.96, 9.11, 9.11, 9.11, 9.07, 8.64, 8.64, 8.77, 8.77, 8.77, 8.33, 8.33, 7.97, 7.97, 7.51, 7.13, 6.68, 6.68, 6.26, 5.81, 4.02, 4.38, 4.15, 3.74, 3.74, 4.38, 3.47, 1.9, -0.0, -0.0, 1.6, 3.33, 4.16, 4.83, 6.53, 7.97, 8.31, 8.93, 13.14, 20.19, 17.3, 11.6, 4.02, 1.79, 1.7, -0.0, -2.8, -3.39, -3.51, -3.07, -3.07, -3.07, -3.07, 10.06, 10.06, 10.06, 10.35, 10.23, 10.23, 10.23, 10.51, 10.51, 10.51, 10.51, 10.51, 10.51, 10.96, 10.96, 10.96, 10.96, 10.96, 10.96, 10.96, 10.41, 10.68, 10.68, 10.3, 10.3, 10.55, 10.55, 10.16, 10.16, 10.4, 10.4, 10.0, 9.88, 10.11, 9.71, 9.71, 9.51, 9.42, 9.42, 9.42, 9.21, 9.21, 9.21, 9.39, 8.96, 8.96, 8.96, 9.11, 9.11, 9.07, 8.64, 8.64, 8.64, 8.77, 8.77, 8.33, 8.3, 8.3, 7.97, 7.51, 7.51, 7.13, 6.68, 6.26, 5.81, 5.36, 4.02, 3.95, 4.15, 4.15, 3.32, 3.74, 1.9, -0.0, -0.0, 0.81, 2.29, 3.11, 3.9, 5.69, 7.02, 8.03, 8.68, 11.75, 23.14, 19.62, 14.29, 6.71, 2.12, 1.7, 2.68, -0.45, -3.13, -3.51, -3.07, -3.07, -3.07, -3.07, 10.06, 10.06, 10.06, 10.59, 10.23, 10.23, 10.23, 10.51, 10.51, 10.51, 10.51, 10.51, 10.51, 10.96, 10.96, 10.96, 10.96, 10.96, 10.96, 10.96, 10.79, 10.68, 10.68, 10.3, 10.3, 10.55, 10.55, 10.55, 10.16, 10.4, 10.4, 10.4, 9.88, 10.11, 9.71, 9.71, 9.71, 9.51, 9.42, 9.42, 9.01, 9.21, 9.21, 9.21, 8.96, 8.96, 8.96, 8.96, 9.11, 9.07, 9.07, 8.64, 8.64, 8.64, 8.77, 8.33, 8.3, 8.3, 7.87, 7.84, 7.51, 7.06, 6.68, 6.68, 6.26, 5.36, 3.13, 3.58, 2.68, 3.95, 4.85, 4.66, 1.98, -0.0, -0.79, -0.0, 0.88, 2.47, 4.01, 4.74, 5.69, 7.02, 8.68, 19.97, 23.14, 20.45, 15.58, 8.47, 2.4, 1.0, 2.21, 0.0, -3.07, -3.13, -2.68, -2.17, -2.17, -2.17, 10.06, 10.06, 10.06, 10.59, 10.59, 10.23, 10.23, 10.51, 10.51, 10.51, 10.51, 10.51, 10.51, 10.96, 10.96, 10.96, 10.96, 10.96, 10.96, 10.96, 10.96, 10.68, 10.68, 10.3, 10.3, 10.55, 10.55, 10.55, 10.55, 10.4, 10.4, 10.4, 9.88, 10.11, 10.11, 9.71, 9.71, 9.51, 9.42, 9.42, 9.42, 9.21, 9.21, 9.21, 9.21, 8.79, 8.96, 8.96, 8.96, 8.96, 9.07, 9.07, 8.64, 8.64, 8.64, 8.21, 8.3, 8.3, 7.87, 7.84, 7.4, 7.07, 7.06, 6.68, 6.23, 5.81, 4.92, 4.02, 2.24, 2.24, 4.92, 4.85, 1.74, -0.87, -1.8, -0.0, -0.0, 2.6, 4.01, 4.01, 4.29, 6.01, 12.29, 18.45, 20.86, 18.73, 12.79, 3.53, 0.0, 0.0, 0.59, -0.65, -3.07, -3.13, -1.79, -0.95, -0.95, -0.95, 10.06, 10.06, 10.06, 10.59, 10.59, 10.23, 10.23, 10.51, 10.51, 10.51, 10.51, 10.51, 10.51, 10.7, 10.96, 10.96, 10.96, 10.96, 10.96, 10.96, 10.96, 10.83, 10.68, 10.68, 10.3, 10.55, 10.55, 10.55, 10.55, 10.16, 10.4, 10.4, 10.0, 9.88, 10.11, 9.71, 9.71, 9.71, 9.51, 9.42, 9.42, 9.42, 9.21, 9.21, 9.21, 9.21, 8.79, 8.96, 8.96, 8.96, 8.96, 9.07, 8.64, 8.64, 8.64, 8.64, 8.17, 8.3, 7.87, 7.84, 7.4, 7.4, 7.06, 6.61, 6.23, 5.79, 5.34, 4.88, 2.68, 2.68, 4.02, 4.92, 2.6, -0.0, -1.8, -1.6, -0.0, 1.83, 3.22, 3.47, 3.47, 5.06, 10.23, 15.49, 18.16, 16.33, 7.71, -1.2, -2.91, -1.16, -1.16, -2.0, -2.68, -1.79, -0.6, -0.0, -0.0, -0.0, 10.06, 10.06, 10.06, 10.59, 10.59, 10.23, 10.23, 10.51, 10.51, 10.51, 10.51, 10.51, 10.51, 10.7, 10.7, 10.96, 10.96, 10.96, 10.96, 10.96, 11.22, 10.83, 10.83, 10.68, 10.3, 10.55, 10.55, 10.55, 10.55, 10.16, 10.4, 10.4, 10.4, 10.0, 10.11, 10.11, 9.71, 9.71, 9.71, 9.51, 9.42, 9.42, 9.42, 9.21, 9.21, 9.21, 9.21, 8.79, 8.91, 8.91, 8.91, 8.91, 9.07, 8.64, 8.64, 8.64, 8.17, 8.17, 7.74, 7.84, 7.4, 7.4, 6.94, 6.61, 6.6, 6.16, 5.78, 5.33, 4.88, 2.68, 2.68, 5.36, 3.95, -0.0, -0.87, -1.74, -0.0, 0.87, 2.68, 3.35, 3.35, 5.46, 8.0, 12.37, 16.82, 17.59, 9.15, -1.79, -4.88, -3.53, -3.58, -2.63, -1.49, -0.0, 0.54, 1.16, 1.16, 1.16, 10.06, 10.06, 10.06, 10.59, 10.59, 10.59, 10.23, 10.51, 10.51, 10.51, 10.51, 10.51, 10.51, 10.7, 10.7, 10.96, 10.96, 10.96, 10.96, 10.96, 11.22, 10.83, 10.83, 10.68, 10.55, 10.55, 10.55, 10.55, 10.55, 10.16, 10.4, 10.4, 10.4, 10.0, 10.21, 10.11, 10.11, 9.71, 9.71, 9.71, 9.51, 9.51, 9.42, 9.42, 9.21, 9.21, 9.21, 8.79, 8.96, 8.91, 8.91, 8.91, 8.91, 8.64, 8.64, 8.64, 8.17, 8.17, 7.74, 7.69, 7.4, 7.4, 6.94, 6.94, 6.61, 6.16, 6.16, 5.7, 5.24, 3.04, 2.68, 4.85, 4.47, 0.99, -0.76, -0.99, -0.0, 0.85, 2.53, 2.41, 4.22, 5.2, 7.11, 10.25, 16.07, 18.31, 15.14, 3.97, -2.6, -3.58, -3.07, -1.58, -0.0, 1.24, 1.84, 2.07, 2.07, 2.07, 10.06, 10.06, 10.06, 10.59, 10.59, 10.59, 10.59, 10.51, 10.51, 10.51, 10.51, 10.51, 10.51, 10.7, 10.7, 10.96, 10.96, 10.96, 10.96, 10.96, 11.22, 11.22, 10.83, 10.68, 10.94, 10.55, 10.55, 10.55, 10.55, 10.16, 10.4, 10.4, 10.4, 10.4, 10.0, 10.21, 10.11, 10.11, 9.71, 9.71, 9.71, 9.92, 9.51, 9.42, 9.01, 9.21, 9.21, 9.21, 8.79, 8.91, 8.91, 8.91, 8.91, 8.48, 8.64, 8.64, 8.17, 8.17, 7.74, 7.69, 7.26, 7.4, 7.37, 6.94, 6.94, 6.47, 6.16, 5.7, 5.26, 3.07, 3.04, 3.51, 4.92, 1.9, -1.2, -1.2, -0.0, 0.8, 2.21, 2.53, 4.0, 5.75, 7.15, 10.25, 14.73, 18.78, 17.88, 13.84, 6.26, 1.34, -0.0, 0.8, 1.86, 2.5, 2.15, 3.07, 3.07, 3.07, 10.06, 10.06, 10.06, 10.59, 10.59, 10.59, 10.59, 10.87, 10.51, 10.51, 10.51, 10.51, 10.51, 11.07, 10.7, 10.96, 10.96, 10.96, 10.96, 10.96, 10.96, 11.22, 10.83, 10.83, 10.83, 10.94, 10.55, 10.55, 10.55, 10.55, 10.4, 10.4, 10.4, 10.4, 10.0, 10.21, 10.21, 10.11, 10.11, 9.71, 9.71, 9.92, 9.51, 9.42, 9.42, 9.21, 9.21, 9.21, 9.21, 8.79, 8.91, 8.91, 8.91, 8.48, 8.48, 8.64, 8.17, 8.17, 7.74, 7.69, 7.26, 7.26, 7.21, 6.94, 6.94, 6.51, 6.47, 6.16, 5.7, 5.7, 5.51, 3.51, 5.36, 2.68, -1.26, -2.0, -0.0, 0.95, 2.54, 2.98, 3.9, 5.81, 7.6, 10.7, 14.73, 18.76, 18.78, 16.52, 14.23, 11.09, 7.48, 4.3, 3.32, 2.8, 2.53, 3.49, 3.49, 3.49, 10.06, 10.06, 10.06, 10.59, 10.59, 10.59, 10.59, 10.87, 10.87, 10.87, 10.87, 10.87, 11.07, 11.07, 10.7, 10.96, 10.96, 10.96, 10.96, 10.96, 10.96, 11.22, 11.22, 10.83, 10.83, 10.83, 10.94, 10.55, 10.55, 10.55, 10.16, 10.4, 10.4, 10.4, 10.4, 10.0, 10.0, 10.11, 10.11, 10.11, 9.71, 9.71, 9.92, 9.51, 9.42, 9.42, 9.21, 9.21, 9.21, 8.79, 8.79, 8.91, 8.91, 8.91, 8.48, 8.48, 8.17, 8.17, 8.17, 7.69, 7.69, 7.26, 7.21, 6.79, 6.94, 6.94, 6.47, 6.47, 6.04, 5.99, 5.7, 3.95, 5.31, 4.92, 0.89, -2.24, -1.34, 2.24, 3.13, 4.02, 4.47, 5.81, 8.05, 10.7, 13.84, 17.88, 18.76, 17.36, 15.39, 14.35, 12.97, 10.8, 7.76, 4.73, 3.32, 3.45, 3.45, 3.45, 10.06, 10.06, 10.06, 10.59, 10.59, 10.59, 10.59, 10.87, 10.87, 10.87, 10.87, 11.07, 11.07, 11.07, 10.7, 10.96, 10.96, 10.96, 10.96, 10.96, 10.96, 10.96, 11.22, 10.83, 10.83, 10.83, 11.08, 10.55, 10.55, 10.55, 10.55, 10.16, 10.4, 10.4, 10.4, 10.0, 9.88, 10.11, 10.11, 10.11, 9.71, 9.71, 9.71, 9.92, 9.51, 9.42, 9.63, 9.21, 9.21, 9.21, 8.79, 8.91, 8.91, 8.91, 8.48, 8.48, 8.0, 8.0, 8.17, 7.69, 7.69, 7.26, 7.21, 7.21, 6.79, 6.79, 6.94, 6.47, 6.47, 6.04, 6.14, 5.7, 5.7, 6.71, 3.47, -0.0, -1.34, 2.24, 3.58, 4.47, 4.92, 6.26, 8.05, 10.28, 12.52, 16.52, 18.17, 17.62, 16.53, 15.41, 14.68, 13.49, 11.3, 9.46, 6.42, 4.66, 4.66, 4.66, 10.06, 10.06, 10.06, 10.59, 10.59, 10.59, 10.59, 10.87, 10.87, 10.87, 10.87, 11.07, 11.07, 11.07, 10.7, 10.96, 10.96, 10.96, 10.96, 10.96, 10.96, 10.96, 11.22, 10.83, 10.83, 10.83, 11.08, 10.55, 10.55, 10.55, 10.55, 10.16, 10.4, 10.4, 10.4, 10.0, 9.88, 10.11, 10.11, 10.11, 9.71, 9.71, 9.71, 9.92, 9.51, 9.42, 9.63, 9.21, 9.21, 9.21, 8.79, 8.91, 8.91, 8.91, 8.48, 8.48, 8.0, 8.0, 8.17, 7.69, 7.69, 7.26, 7.21, 7.21, 6.79, 6.79, 6.94, 6.47, 6.47, 6.04, 6.14, 5.7, 5.7, 6.71, 3.47, -0.0, 0.45, 2.24, 3.58, 4.47, 4.92, 6.26, 7.6, 9.83, 11.62, 14.73, 16.83, 17.44, 16.54, 16.54, 16.29, 15.36, 14.17, 12.56, 10.01, 7.71, 7.71, 7.71]}, {"header": {"dx": 0.06612293990616946, "dy": 0.0552356325346848, "nx": 98, "ny": 59, "la1": 35.046912555036876, "la2": 31.78801023549047, "lo1": -121.43107172385933, "lo2": -114.95102361305473, "refTime": "2026041708", "parameterCategory": 1, "parameterNumber": 3}, "data": [-11.2, -10.55, -9.63, -8.96, -7.9, -7.23, -6.41, -5.49, -5.37, -5.08, -3.39, -1.7, -0.6, -1.26, -2.17, -2.68, -3.49, -2.98, -2.99, -2.99, -2.16, -0.79, -0.0, -0.0, -0.0, -0.0, -0.0, -0.6, -0.63, -0.45, 0.0, 0.0, 0.0, 0.57, 1.2, 1.16, 1.13, 1.27, 0.7, 0.61, 0.0, 0.54, 0.0, -1.74, -4.19, -6.24, -7.82, -9.23, -7.68, -2.5, 0.8, 2.21, 2.07, 2.07, 2.41, 2.41, 3.07, 2.73, 1.66, 0.65, 0.0, -1.6, -1.34, -0.63, 0.0, 0.0, 0.0, 0.0, 0.0, 0.0, 0.0, 0.0, -0.79, -0.72, -1.41, -0.79, -0.73, -1.43, -2.41, -2.31, -2.28, -2.31, -1.52, -1.41, -1.7, -1.47, 0.0, 0.0, 0.0, -1.54, -3.91, -5.6, -6.21, -7.01, -6.77, -6.33, -5.3, -4.8, -11.6, -11.08, -10.16, -9.48, -8.43, -8.15, -7.07, -6.15, -6.03, -5.6, -3.87, -1.34, -0.63, -0.63, -0.89, -1.79, -2.5, -3.22, -3.22, -2.88, -3.2, -2.12, -0.0, -0.0, 1.4, 1.2, 1.24, 0.57, -0.0, -0.0, -0.0, -0.0, 0.89, 1.34, 1.86, 1.88, 1.84, 1.27, 1.27, 0.59, 0.0, -0.76, -2.68, -6.7, -9.3, -9.9, -10.86, -7.68, -1.58, 0.6, 1.9, 2.84, 3.07, 2.73, 3.16, 3.07, 3.43, 3.64, 3.11, 2.88, 1.33, 0.0, 0.0, 0.0, 0.57, 0.65, 0.0, 0.0, 0.0, 0.74, 0.77, 0.77, 0.0, -0.79, -1.45, -1.55, -1.52, -1.43, -2.41, -2.31, -2.28, -2.31, -1.52, -1.41, -1.7, -1.47, 0.0, 0.0, 0.0, -1.54, -3.91, -5.6, -6.21, -7.01, -6.77, -6.33, -5.3, -4.8, -11.6, -11.2, -10.68, -10.02, -9.35, -8.43, -7.9, -7.07, -6.7, -6.1, -4.34, -3.13, -1.34, -0.89, -0.89, -1.2, -1.79, -2.53, -4.01, -4.19, -3.64, -4.22, -3.4, -0.96, -0.0, 1.88, 1.9, 1.49, 0.71, -0.0, -0.54, -0.71, -0.0, 0.95, 1.34, 1.58, 1.16, 0.59, 0.0, 0.0, -1.88, -4.94, -8.3, -10.9, -12.08, -11.16, -7.67, -1.26, 1.7, 1.9, 1.88, 2.41, 2.79, 3.07, 3.48, 3.48, 3.43, 3.64, 3.11, 3.11, 2.29, 1.49, 1.4, 1.74, 1.2, 1.4, 1.49, 1.35, 1.6, 1.45, 1.52, 1.47, 0.0, -0.77, -1.49, -2.31, -2.28, -1.52, -2.82, -3.07, -3.11, -3.06, -2.31, -2.11, -1.88, -1.4, -0.76, 0.0, -1.55, -3.82, -6.17, -6.9, -7.69, -7.79, -7.9, -6.09, -5.41, -4.4, -12.11, -11.6, -11.08, -10.55, -9.63, -9.35, -8.43, -7.35, -7.23, -6.4, -5.09, -4.02, -2.24, -1.7, -1.79, -1.79, -1.49, -2.17, -2.79, -2.8, -2.2, -1.83, -3.2, -2.82, -1.52, -0.0, 1.16, 1.24, 0.99, -0.0, -1.4, -1.84, -1.33, -0.71, 0.0, 0.0, 0.0, -0.7, -2.04, -3.69, -5.86, -7.9, -8.65, -7.33, -6.06, -3.72, 0.0, 1.88, 1.88, 2.15, 1.84, 2.07, 2.07, 2.79, 3.48, 3.79, 3.22, 3.11, 3.33, 2.2, 2.11, 2.3, 2.79, 2.84, 2.79, 3.07, 2.2, 2.88, 3.26, 3.6, 3.21, 2.31, 0.76, -0.7, -2.75, -3.8, -4.71, -4.65, -3.87, -3.91, -4.12, -3.88, -2.99, -2.21, -1.79, -1.34, -0.71, -2.29, -4.5, -7.0, -8.74, -7.93, -7.69, -7.9, -6.97, -5.28, -3.7, -3.88, -12.11, -12.11, -11.6, -11.08, -10.16, -9.63, -8.96, -8.27, -7.23, -6.8, -5.99, -4.02, -2.17, -2.6, -3.07, -3.13, -2.63, -2.24, -2.53, -3.79, -2.09, -1.05, -0.88, -1.1, -1.45, -0.95, -0.0, -0.0, -0.0, -0.0, -1.86, -2.84, -4.43, -3.49, -2.68, -2.8, -2.98, -3.91, -6.24, -7.97, -7.64, -5.3, -1.27, 0.0, 0.74, 0.74, 1.52, 1.47, 1.41, 2.07, 1.84, 2.07, 2.15, 2.84, 3.07, 3.72, 3.22, 2.88, 3.0, 3.2, 2.11, 2.41, 2.84, 3.49, 4.11, 3.64, 2.98, 2.53, 3.64, 4.71, 3.95, 2.99, 2.1, 0.77, -0.74, -3.47, -5.94, -6.2, -4.71, -4.17, -4.66, -4.83, -3.79, -2.68, -2.8, -3.13, -4.43, -6.45, -8.5, -10.1, -9.42, -7.58, -7.79, -7.73, -5.49, -3.69, -3.7, -3.95, -12.51, -12.11, -11.99, -11.6, -11.08, -10.16, -9.63, -8.82, -7.76, -7.31, -6.04, -4.47, -2.24, -2.24, -3.13, -3.58, -4.02, -3.51, -3.53, -4.56, -5.76, -3.7, -2.21, -0.95, -1.03, -2.12, -1.99, -1.74, -1.86, -1.79, -1.6, -1.2, -2.17, -4.24, -5.81, -6.66, -6.07, -6.08, -7.02, -7.07, -6.0, -2.21, 0.0, 0.69, 0.0, 0.0, 0.0, 0.76, 1.41, 1.33, 1.16, 1.33, 1.84, 2.41, 2.51, 2.73, 2.4, 2.2, 3.11, 2.9, 2.29, 2.41, 3.49, 4.46, 4.43, 4.36, 2.88, 2.53, 2.07, 3.2, 2.39, 1.58, 1.54, 1.55, 0.0, -1.54, -4.56, -6.01, -5.28, -4.39, -4.6, -6.14, -6.06, -3.97, -5.77, -9.11, -10.91, -12.39, -12.87, -11.83, -10.25, -9.22, -9.22, -7.52, -4.36, -3.79, -4.6, -5.51, -12.51, -12.51, -12.11, -11.36, -10.83, -10.55, -10.02, -8.96, -8.15, -7.31, -6.47, -4.92, -1.79, -1.34, -2.68, -3.13, -4.02, -4.87, -4.47, -3.72, -4.8, -6.31, -6.05, -4.12, -3.72, -3.91, -5.24, -5.6, -4.98, -3.07, -1.79, 0.0, 0.0, -1.7, -4.02, -5.81, -6.66, -5.37, -4.43, -3.45, -3.9, -5.73, -6.4, -6.32, -4.21, 0.0, 0.59, 1.27, 2.0, 1.14, 0.96, 1.16, 2.07, 2.79, 2.07, 2.07, 2.3, 2.3, 1.55, 2.2, 2.2, 3.16, 3.83, 3.84, 3.48, 3.64, 3.0, 1.49, 0.61, 0.78, 0.0, 0.0, 0.0, 0.0, -0.74, -1.51, -2.31, -2.53, -3.16, -4.6, -5.2, -7.73, -8.6, -9.08, -10.75, -12.79, -15.72, -16.11, -15.09, -13.46, -13.06, -12.7, -9.8, -4.11, -2.5, -4.36, -6.2, -6.21, -12.28, -12.28, -12.28, -11.75, -11.36, -10.83, -10.55, -9.48, -8.28, -8.0, -6.94, -5.81, -2.68, -1.7, -1.2, -1.86, -3.39, -4.93, -5.2, -2.91, -0.89, -1.9, -3.64, -6.24, -6.44, -6.4, -7.4, -8.37, -6.7, -4.98, -2.6, -1.79, -1.6, -1.9, -3.6, -5.77, -6.26, -3.82, -2.86, -3.58, -6.36, -8.67, -9.6, -5.73, -0.89, 1.34, 1.86, 1.33, 1.55, 1.03, 0.61, 1.84, 2.79, 3.07, 3.07, 2.3, 2.3, 2.3, 2.4, 2.0, 2.53, 3.22, 2.5, 3.83, 3.16, 3.72, 3.09, 0.82, 0.0, -0.82, -0.77, -0.75, -1.58, -3.04, -3.07, -2.06, -0.75, 0.0, -1.41, -3.78, -4.94, -7.67, -9.2, -9.82, -11.37, -13.23, -14.3, -14.74, -14.11, -12.52, -12.05, -9.78, -2.5, 0.0, -1.49, -4.65, -6.97, -6.87, -12.28, -12.28, -12.28, -12.28, -11.75, -11.22, -10.55, -9.88, -8.8, -7.81, -7.4, -7.13, -4.92, -4.92, -3.32, -2.5, -3.45, -4.46, -4.46, -2.53, 0.0, 0.8, -0.45, -2.84, -5.72, -5.6, -6.0, -6.52, -6.32, -5.24, -6.17, -6.26, -5.81, -4.57, -4.4, -4.24, -5.36, -4.02, -3.2, -3.6, -5.94, -3.95, -2.24, -0.0, 1.58, 1.7, 0.89, 0.57, 1.61, 2.15, 3.22, 2.53, 3.48, 3.48, 2.98, 2.98, 2.2, 2.11, 2.4, 2.2, 2.3, 3.22, 2.8, 2.86, 2.84, 3.11, 2.23, 0.76, -0.66, -2.29, -1.49, -2.06, -2.37, -2.87, -2.76, -2.25, -0.75, -0.78, -1.56, -2.1, -2.28, -5.47, -6.92, -8.59, -9.84, -10.47, -11.09, -11.7, -10.07, -7.55, -4.43, -0.57, 1.34, 1.34, -1.2, -5.21, -6.97, -7.44, -12.28, -12.28, -12.67, -12.28, -11.5, -11.22, -10.83, -10.16, -9.71, -8.72, -8.0, -8.17, -7.87, -9.37, -8.49, -7.56, -7.63, -7.71, -6.88, -3.95, -2.6, -0.95, 0.0, -0.89, -2.84, -5.24, -4.54, -5.37, -6.01, -6.4, -7.6, -8.05, -6.71, -4.47, -4.02, -3.51, -3.2, -2.91, -1.6, -2.12, -2.68, -1.58, 0.57, 1.58, 0.99, 0.6, -0.0, 0.45, 1.7, 2.4, 2.5, 2.84, 2.79, 2.73, 2.98, 2.98, 2.11, 1.47, 1.55, 1.49, 3.16, 4.22, 5.37, 3.22, 3.07, 2.29, 2.31, 1.36, -0.66, -2.53, -3.2, -2.7, -2.76, -2.76, -2.14, -2.76, -3.02, -3.16, -2.76, -2.76, -2.84, -2.84, -4.8, -6.35, -7.31, -7.9, -8.15, -7.93, -6.94, -4.28, -0.63, 1.33, 0.61, 0.0, -1.33, -5.64, -7.73, -7.52, -12.42, -12.42, -12.42, -12.42, -12.03, -11.5, -10.83, -10.55, -9.88, -9.01, -8.72, -8.72, -8.22, -8.21, -8.45, -9.81, -10.16, -10.67, -9.82, -8.94, -4.47, -2.6, -1.34, 0.0, -0.8, -2.41, -3.79, -3.58, -5.37, -6.64, -6.71, -4.02, -2.68, -3.13, -4.02, -4.47, -3.6, -1.24, 0.0, 0.0, -0.0, -0.0, 0.6, 0.89, 1.26, 0.95, 1.2, 1.2, 1.34, 1.79, 2.17, 1.9, 1.84, 2.07, 2.0, 2.11, 1.41, 0.76, 0.0, 1.2, 3.32, 4.4, 3.84, 3.84, 4.46, 4.36, 4.46, 3.79, 0.7, -1.33, -3.0, -3.61, -3.39, -2.76, -2.88, -2.82, -4.15, -4.68, -5.4, -5.55, -4.87, -3.47, -2.81, -4.94, -5.72, -6.32, -7.15, -7.02, -6.62, -4.28, -2.9, -2.2, -1.6, -1.55, -2.9, -6.31, -7.82, -7.27, -12.42, -12.42, -12.42, -12.42, -12.03, -11.88, -10.96, -10.55, -10.0, -9.71, -9.01, -8.91, -8.28, -7.23, -6.56, -7.26, -7.4, -8.42, -8.92, -8.03, -4.34, -1.9, -0.57, -0.0, 0.6, -0.0, -0.99, -1.24, -2.4, -3.74, -3.32, -1.26, 0.57, -0.57, -2.4, -3.13, -2.68, -0.63, -0.57, -0.0, 0.61, 0.61, 1.26, 2.24, 2.8, 2.12, 1.6, 0.63, 0.89, 0.0, 0.0, 0.0, 0.0, 0.0, 0.0, 0.0, 0.67, 0.0, 0.0, 1.7, 3.51, 4.8, 4.46, 3.45, 4.8, 6.54, 7.69, 7.02, 3.9, 0.73, -0.72, -1.36, -2.12, -2.99, -3.7, -3.85, -4.68, -5.3, -6.36, -7.03, -6.31, -4.55, -3.78, -3.11, -4.02, -5.35, -6.87, -7.55, -7.22, -6.23, -6.23, -5.59, -4.94, -3.69, -4.71, -6.33, -6.31, -4.43, -12.54, -12.16, -12.42, -12.42, -12.42, -11.88, -11.34, -10.68, -10.16, -9.48, -9.2, -9.2, -8.43, -7.44, -6.28, -5.06, -4.71, -5.08, -5.81, -5.7, -3.13, -0.89, -0.32, -0.0, -0.0, 1.0, 1.8, 2.22, 0.55, -1.14, -1.27, -0.0, 1.16, 0.61, -0.0, -0.0, -0.54, -0.54, -0.53, -0.0, 0.66, 0.59, 1.24, 2.12, 2.12, 2.12, 0.95, -0.0, -0.89, -1.34, -1.79, -2.24, -2.4, -2.5, -1.74, -1.8, -0.98, 0.0, 0.0, 1.34, 4.47, 3.74, 3.83, 3.97, 4.47, 5.77, 6.54, 6.7, 4.83, 4.22, 3.69, 2.18, 0.0, -1.45, -2.99, -4.71, -5.41, -6.09, -6.94, -7.11, -7.02, -6.87, -6.27, -6.4, -4.5, -5.13, -7.18, -7.27, -6.98, -6.64, -7.27, -7.31, -6.35, -6.14, -7.12, -7.25, -4.6, -1.61, -12.7, -12.54, -12.54, -12.16, -12.16, -11.88, -11.5, -10.58, -10.3, -9.63, -9.35, -8.82, -8.55, -8.0, -6.92, -5.71, -4.75, -4.47, -4.45, -4.43, -3.22, -2.23, -1.2, -1.2, -1.2, -0.0, 0.54, 1.12, 1.2, 0.57, -0.0, -0.0, -0.0, -0.0, 0.54, 0.54, -0.0, -0.57, -0.0, 0.61, 0.66, 0.59, 0.85, 2.21, 2.97, 2.8, 0.95, -0.0, -1.2, -2.12, -2.68, -3.13, -3.04, -2.6, -2.23, -2.15, -2.23, -1.98, -1.2, 0.89, 4.38, 5.36, 3.9, 3.13, 3.13, 3.13, 3.04, 2.5, 3.45, 4.74, 5.94, 4.5, 0.74, -1.52, -3.7, -5.28, -5.78, -6.57, -6.97, -6.45, -6.31, -6.97, -7.93, -7.25, -6.21, -6.87, -6.31, -5.37, -4.75, -5.72, -6.32, -6.35, -7.95, -8.6, -8.38, -7.79, -3.69, -0.65, -12.7, -12.54, -12.54, -12.16, -12.16, -11.62, -11.5, -10.96, -10.3, -10.02, -9.1, -8.55, -8.55, -8.29, -8.08, -6.64, -6.04, -5.44, -5.1, -4.73, -4.08, -3.42, -2.82, -2.86, -2.4, -1.86, -1.08, -0.0, -0.0, -0.0, -0.0, -0.0, -0.0, -0.0, -0.0, 1.4, 1.58, 0.0, -0.0, 1.24, 1.16, 0.98, 0.85, 1.4, 2.53, 3.2, 3.2, 1.9, -0.0, -0.95, -1.7, -2.24, -1.34, 0.0, 0.0, 0.0, -1.6, -3.07, -1.2, 1.2, 3.58, 3.58, 4.02, 4.02, 3.58, 3.13, 2.24, 1.58, 1.6, 3.6, 4.43, 2.35, -0.76, -3.02, -4.6, -4.46, -2.88, -3.11, -3.0, -3.11, -2.88, -3.79, -4.8, -4.73, -4.8, -6.87, -5.49, -2.84, -4.09, -4.74, -5.37, -6.01, -8.55, -8.87, -8.37, -4.03, -1.33, -1.33, -12.82, -12.82, -12.27, -12.27, -11.99, -11.62, -11.24, -10.96, -10.41, -10.13, -9.21, -8.65, -8.65, -8.65, -8.15, -7.27, -6.97, -6.35, -5.72, -5.45, -5.09, -4.71, -4.08, -4.12, -3.49, -3.07, -2.17, -1.16, -0.57, -0.0, -0.0, -0.0, -0.0, -0.0, 1.4, 1.26, 1.7, 1.7, 1.58, 1.4, 1.2, 0.54, 1.4, 2.53, 2.84, 3.35, 3.35, 2.53, 2.8, 1.9, -0.0, 0.0, 0.0, 0.89, 0.89, 0.45, 0.0, -0.8, 0.0, 1.58, 1.2, 2.24, 2.24, 1.9, 1.58, -0.0, -0.0, -0.0, 1.79, 2.21, 0.7, -2.06, -4.65, -4.68, -2.88, -0.54, 1.24, 1.4, 1.4, 1.16, 0.61, 0.0, -0.73, -1.55, -2.53, -2.84, -3.72, -2.8, -4.15, -4.81, -5.3, -7.59, -8.23, -8.22, -7.8, -5.31, -2.66, -2.66, -12.82, -12.65, -12.65, -12.27, -11.72, -11.62, -11.07, -10.7, -10.51, -10.23, -9.3, -8.38, -8.38, -8.38, -7.86, -7.59, -6.69, -6.69, -6.35, -5.72, -5.46, -5.09, -4.45, -3.83, -2.77, -2.8, -2.61, -2.53, -1.7, -1.34, -0.57, -0.54, -0.0, -0.0, 0.6, 1.7, 2.4, 2.23, 1.58, 1.4, 1.4, 0.57, 1.13, 1.24, 2.84, 3.82, 3.39, 2.8, 3.13, 2.68, 2.24, 1.79, 1.34, 1.26, 1.26, 1.26, 1.58, 1.9, 2.8, 2.21, 1.9, 0.0, -0.0, -0.0, 1.58, -0.0, -0.0, -0.0, -0.45, -0.76, -4.2, -7.09, -6.97, -3.79, -1.34, 2.6, 4.43, 6.0, 4.46, 2.84, 2.07, 0.66, 0.0, -1.27, -1.74, -2.12, -2.5, -3.58, -6.0, -7.35, -6.98, -5.72, -6.9, -8.24, -8.53, -6.95, -5.06, -5.06, -12.65, -12.65, -12.37, -12.0, -11.44, -11.16, -11.07, -10.7, -10.51, -9.94, -9.59, -8.78, -8.45, -7.86, -7.59, -6.98, -6.98, -6.7, -6.35, -5.72, -5.06, -4.63, -4.66, -3.37, -2.23, -2.23, -2.73, -2.44, -2.16, -2.22, -1.88, -1.26, 0.0, 0.0, 1.34, 1.34, 1.7, 1.6, 0.95, -0.0, -0.0, -0.0, 0.8, 0.95, 2.8, 3.13, 3.13, 3.13, 2.68, 2.68, 2.68, 2.4, 1.9, 1.9, 1.9, 1.9, 2.8, 2.8, 2.21, 1.4, 1.4, 0.0, 0.0, 2.24, 2.68, 1.26, 0.95, 0.0, -2.6, -6.18, -5.21, -4.14, -2.66, -1.58, 0.4, 3.07, 3.53, 4.46, 3.64, 2.3, 0.59, 0.0, -1.6, -2.21, -2.68, -4.02, -5.31, -6.21, -8.14, -8.68, -6.7, -4.46, -5.86, -8.55, -8.93, -8.03, -7.59, -7.59, -12.65, -12.0, -12.0, -11.8, -11.44, -10.88, -10.8, -10.51, -10.51, -9.94, -9.66, -9.08, -8.5, -7.9, -7.59, -6.88, -6.98, -6.7, -5.7, -4.63, -4.12, -5.23, -5.29, -3.69, -3.11, -2.26, -3.4, -3.11, -2.2, -2.8, -1.7, -1.11, 0.0, 0.0, 1.26, 1.26, 1.6, 0.95, 0.0, 0.0, 0.0, 0.0, 0.0, 1.79, 2.68, 2.68, 2.68, 2.68, 2.68, 2.4, 2.4, 2.4, 2.4, 2.8, 2.8, 2.8, 2.53, 2.53, 1.27, 1.13, 0.0, 0.0, 2.24, 2.68, 3.13, 2.68, 2.24, 0.0, -1.24, -3.22, -1.05, 0.74, 2.28, 1.51, 0.71, 0.53, 0.0, 0.0, 0.0, 0.0, -2.2, -3.0, -2.51, -2.5, -3.07, -4.41, -5.64, -5.44, -9.6, -8.8, -6.4, -5.82, -7.07, -9.05, -9.3, -8.32, -8.67, -8.67, -12.0, -12.0, -11.8, -11.8, -11.44, -11.23, -10.65, -10.59, -10.01, -9.66, -9.42, -9.42, -8.53, -8.24, -8.24, -6.98, -6.98, -6.98, -5.21, -4.46, -4.4, -5.86, -6.7, -6.24, -5.3, -4.65, -3.64, -4.1, -3.45, -2.82, -1.73, -0.57, 0.0, 0.0, 0.65, 1.24, 1.24, 0.71, 0.71, 0.0, 0.0, 0.53, 0.61, 1.4, 1.61, 2.4, 2.4, 2.4, 2.4, 2.4, 2.4, 2.4, 2.8, 2.8, 1.7, 2.6, 3.72, 2.53, 0.99, 0.0, 0.0, 0.0, 2.68, 3.58, 4.02, 4.02, 3.95, 3.2, 1.83, 1.73, 3.25, 3.91, 3.99, 2.34, 0.0, -3.07, -5.59, -6.32, -3.91, -3.09, -2.9, -2.2, -1.33, -1.24, -2.4, -2.91, -2.4, -0.99, -4.66, -5.44, -7.28, -8.63, -9.27, -10.15, -10.13, -9.84, -9.65, -9.65, -11.8, -11.8, -11.8, -11.44, -11.23, -10.88, -10.65, -10.06, -9.72, -9.46, -9.13, -9.13, -8.85, -8.24, -7.96, -7.6, -7.24, -6.98, -6.69, -6.14, -6.2, -6.96, -6.7, -6.34, -6.35, -5.72, -4.47, -3.45, -2.82, -1.73, -1.11, -0.57, 0.0, 0.0, 0.61, 0.53, 0.65, 0.54, 0.65, 0.65, 0.61, 0.61, 1.33, 1.33, 1.16, 1.4, 1.9, 1.9, 1.9, 1.9, 1.9, 1.9, 2.8, 2.8, 3.2, 2.6, 3.58, 3.16, 1.6, 0.0, 0.0, 2.24, 3.58, 4.02, 4.02, 4.38, 4.38, 5.09, 5.82, 5.69, 6.95, 7.79, 6.14, 2.28, -2.28, -7.01, -11.69, -10.9, -8.27, -5.21, -3.2, -1.41, 0.0, 0.0, -0.54, -1.24, 0.0, 0.0, -1.61, -2.86, -7.89, -10.8, -10.8, -8.93, -9.68, -9.86, -9.05, -9.05, -11.8, -11.8, -11.58, -11.23, -11.23, -10.65, -10.36, -9.77, -9.77, -9.17, -9.17, -8.56, -8.56, -7.96, -8.24, -7.59, -7.33, -6.96, -7.6, -7.33, -6.94, -6.31, -5.69, -5.06, -5.32, -4.66, -4.03, -2.92, -2.29, -1.67, -1.16, -0.61, -0.55, 0.0, 0.0, 0.0, 0.0, 0.59, 0.51, 0.51, 0.59, 0.59, 1.13, 1.13, 1.33, 1.4, 1.2, 1.58, 1.58, 1.58, 1.9, 1.9, 2.8, 2.8, 2.8, 3.39, 4.15, 4.4, 2.84, 0.0, 0.45, 1.79, 2.24, 2.24, 4.47, 4.38, 4.38, 4.85, 6.02, 7.5, 8.24, 10.04, 7.69, 3.85, -6.28, -10.53, -13.45, -14.1, -12.5, -9.78, -5.3, -2.88, -1.55, -0.66, -0.7, -1.16, -1.2, -1.88, -5.38, -4.74, -7.92, -8.4, -6.13, -3.39, -4.73, -7.06, -8.14, -8.14, -11.58, -11.58, -11.28, -10.94, -10.99, -10.65, -10.36, -10.09, -9.77, -9.48, -8.87, -8.58, -8.58, -8.24, -7.96, -7.59, -7.59, -7.32, -7.32, -7.16, -6.5, -5.17, -4.57, -3.94, -3.97, -3.97, -3.49, -2.83, -2.33, -1.81, -1.73, -1.2, -0.57, -0.58, 0.0, 0.0, 0.0, 0.0, 0.55, 0.55, 0.63, 0.57, 1.11, 1.11, 1.27, 1.84, 1.13, 1.2, 0.0, 1.58, 1.2, 1.2, 2.21, 2.8, 2.8, 3.39, 2.24, 4.41, 2.54, 1.26, 1.7, 3.13, 3.13, 2.68, 4.85, 4.85, 4.85, 4.41, 5.36, 5.31, 5.7, 2.12, 1.52, 0.0, -3.35, -5.81, -9.15, -11.47, -12.79, -12.39, -9.52, -6.06, -3.72, -3.07, -2.79, -2.84, -3.14, -5.46, -6.08, -1.61, -3.78, -1.86, -0.6, 0.0, -1.49, -3.45, -6.25, -6.25, -10.94, -10.94, -10.94, -10.94, -10.36, -10.36, -10.09, -9.77, -9.48, -9.19, -8.87, -8.59, -8.59, -8.23, -8.23, -7.57, -7.57, -7.16, -7.16, -6.9, -6.25, -5.14, -4.68, -4.05, -3.91, -3.45, -3.45, -2.8, -2.8, -2.3, -1.67, -1.69, -1.16, -0.59, -0.56, 0.0, 0.0, 0.0, 0.0, 0.58, 0.59, 0.54, 0.61, 0.55, 1.23, 1.27, 1.27, 1.13, 0.0, 1.4, 0.99, 1.4, 1.4, 2.21, 2.21, 2.8, 1.79, 3.13, 2.68, 1.86, 2.23, 2.12, 1.79, 3.13, 4.38, 4.85, 4.85, 5.7, 4.92, 4.02, 1.6, -2.09, -0.78, 1.48, 2.09, 0.0, -2.8, -7.06, -9.4, -11.47, -11.2, -8.76, -6.96, -6.0, -5.46, -5.05, -6.0, -5.05, -2.12, 1.79, 0.0, 1.2, 0.99, 0.54, 0.0, -2.21, -3.49, -3.49, -10.94, -10.94, -10.94, -10.69, -10.69, -10.36, -10.09, -9.77, -9.48, -9.19, -8.87, -8.59, -8.87, -8.22, -8.22, -7.83, -7.31, -6.9, -6.9, -6.46, -5.8, -5.8, -5.14, -4.68, -4.21, -3.89, -3.42, -2.9, -2.93, -2.28, -2.17, -1.75, -1.78, -1.14, -0.58, -0.55, 0.0, 0.0, 0.0, 0.0, 0.0, 0.58, 0.53, 0.59, 0.61, 0.55, 0.55, 0.55, 0.63, 0.57, 0.57, 0.98, 1.13, 1.4, 1.4, 2.4, 2.68, 2.24, 2.68, 2.8, 1.58, 1.86, 1.79, 2.24, 4.02, 4.47, 4.41, 4.85, 5.31, 2.4, -1.74, -2.35, 0.0, 3.79, 6.21, 6.42, 4.84, 0.0, -5.75, -9.49, -11.2, -10.73, -9.21, -7.59, -5.69, -4.0, -3.6, -3.07, 0.0, 1.7, 0.63, 0.63, 0.0, 0.0, 0.0, -0.59, -1.16, -1.16, -10.94, -10.94, -10.69, -10.69, -10.69, -10.09, -10.09, -10.09, -9.19, -9.19, -8.87, -8.59, -8.59, -8.22, -8.22, -7.55, -7.55, -7.13, -6.46, -6.46, -6.0, -5.8, -5.14, -4.48, -4.17, -4.02, -3.53, -3.39, -2.9, -2.25, -2.28, -1.73, -1.75, -1.2, -1.14, -0.58, -0.58, 0.0, 0.0, 0.0, 0.0, 0.0, 0.0, 0.58, 0.59, 0.54, 0.54, 0.54, 0.54, 0.61, 0.61, 0.55, 0.0, 1.13, 1.13, 1.6, 1.2, 1.58, 2.24, 2.24, 2.53, 2.23, 2.12, 1.79, 1.79, 2.24, 2.68, 2.68, 5.2, 3.48, 0.0, 0.0, 0.0, 3.1, 6.14, 9.55, 8.56, 4.31, -2.07, -8.82, -11.87, -11.85, -10.45, -7.61, -3.72, -2.86, -2.5, -2.15, -0.63, 0.89, -0.0, -0.45, -0.99, -0.65, -0.61, 0.0, 0.0, 0.0, -10.94, -10.94, -10.69, -10.69, -10.36, -9.8, -9.8, -9.8, -9.19, -9.19, -8.59, -8.59, -8.59, -8.22, -8.22, -7.55, -7.55, -7.13, -6.88, -6.22, -6.0, -5.32, -5.14, -4.65, -3.99, -3.99, -3.5, -3.37, -2.87, -2.75, -2.35, -1.79, -1.71, -1.16, -1.11, -1.18, -0.56, -0.56, -0.57, 0.0, 0.0, 0.0, 0.0, 0.0, 0.0, 0.58, 0.0, 0.0, 0.0, 0.0, 0.0, 0.0, 0.0, 0.63, 0.0, 0.54, 0.0, 0.0, 0.0, 1.79, 2.21, 2.84, 2.4, 1.79, 4.02, 3.58, 3.58, 1.79, 3.6, 2.53, 0.82, 0.0, 0.0, 1.58, 4.48, 7.01, 5.35, 3.41, 0.0, -6.71, -10.62, -11.88, -10.73, -7.59, -5.09, -3.48, -2.84, -2.53, -0.54, 0.0, 0.0, -0.89, -2.12, -1.86, -1.61, -0.61, -0.59, -0.59, -10.69, -10.69, -10.69, -10.36, -10.09, -9.8, -9.8, -9.5, -9.5, -8.59, -8.59, -8.87, -8.22, -8.22, -7.83, -7.55, -7.13, -7.13, -6.88, -6.22, -6.0, -5.32, -4.65, -4.65, -4.13, -3.99, -3.47, -3.34, -2.96, -2.3, -2.21, -1.76, -1.69, -1.71, -1.1, -1.16, -1.11, -0.59, -0.56, -0.57, 0.0, 0.0, 0.0, 0.0, 0.56, 0.56, 0.0, 0.0, 0.0, 0.0, 0.0, 0.0, 0.0, 0.0, 0.0, 0.0, 0.0, 0.0, 0.0, 1.26, 0.85, 1.6, 2.98, 3.58, 2.68, 4.47, 2.24, 0.0, 0.0, 0.0, 0.88, 0.0, -0.77, -0.81, 0.0, -0.74, -1.55, 0.0, 0.0, -2.68, -8.01, -10.66, -10.5, -8.76, -7.32, -6.35, -4.43, -1.84, -0.61, 0.0, 0.0, 0.0, -1.7, -2.0, -1.9, -1.16, -0.59, -0.59, -10.69, -10.69, -10.69, -10.36, -10.09, -9.8, -9.8, -9.5, -9.21, -8.87, -8.87, -8.22, -8.22, -7.96, -7.57, -7.31, -7.13, -7.13, -6.68, -6.46, -5.8, -5.32, -5.14, -4.65, -4.13, -3.99, -3.99, -3.34, -2.96, -2.84, -2.3, -2.33, -1.76, -1.69, -1.71, -1.15, -1.16, -1.16, -0.56, -0.56, -0.56, 0.0, 0.0, 0.0, 0.0, 0.56, 0.0, 0.0, 0.0, 0.0, 0.0, 0.0, 0.0, 0.0, 0.0, 0.0, 0.0, 0.0, 0.0, 0.0, 0.87, 0.79, 0.8, 2.97, 3.13, 4.47, 3.97, 0.89, -1.34, -1.2, 0.0, 1.58, 0.0, -1.62, -6.09, -8.36, -7.69, -4.8, -0.72, -1.24, -3.58, -9.11, -10.91, -9.48, -7.54, -5.72, -2.84, -1.4, -0.61, 0.0, 0.6, 0.63, 0.0, -0.53, -0.61, -0.59, 0.0, 0.0, -10.69, -10.69, -10.36, -10.36, -10.09, -9.8, -9.8, -9.5, -9.21, -8.87, -8.87, -8.22, -8.22, -7.57, -7.57, -6.9, -7.13, -6.9, -6.46, -6.25, -5.8, -5.32, -5.14, -5.14, -4.65, -3.99, -3.99, -3.5, -3.5, -2.84, -2.84, -2.33, -2.33, -1.69, -1.79, -1.71, -1.15, -1.16, -1.16, -0.56, -0.56, -0.57, -0.54, 0.0, 0.0, 0.0, 0.0, 0.0, -0.56, 0.0, 0.0, 0.0, 0.0, 0.0, 0.0, 0.0, 0.0, 0.0, 0.0, 0.0, 0.0, 0.0, 0.0, 0.99, 3.95, 3.51, 5.36, 3.9, 0.63, -0.45, 0.99, 3.09, 4.06, 1.55, -3.96, -9.12, -9.39, -6.33, -2.97, -0.79, -1.88, -6.36, -8.72, -8.68, -7.23, -3.14, -1.2, 0.0, 0.0, 0.54, 0.95, 0.6, 0.0, 0.0, 0.0, 0.0, 0.64, 0.64, -10.69, -10.69, -10.36, -10.09, -9.8, -9.8, -9.8, -9.5, -9.5, -8.87, -8.87, -8.22, -7.83, -7.57, -7.31, -6.9, -6.9, -6.46, -6.46, -5.8, -5.8, -5.32, -5.14, -4.65, -4.65, -4.48, -4.17, -3.5, -2.84, -2.84, -2.84, -2.99, -2.87, -2.23, -2.35, -1.71, -1.71, -1.63, -1.16, -1.11, -1.18, -0.56, -0.57, -0.58, -0.55, 0.0, 0.0, 0.0, 0.0, 0.0, 0.0, 0.0, 0.0, 0.0, 0.0, 0.0, 0.0, 0.0, 0.0, 0.0, 0.0, 0.0, 0.0, 2.53, 2.68, 2.84, 3.83, 5.7, 4.74, 1.24, 1.26, 4.01, 4.8, 5.56, 2.36, -3.95, -7.79, -6.97, -4.68, -3.14, -2.71, -3.38, -4.9, -4.93, -3.2, -0.57, 1.19, 2.0, 2.11, 1.8, 1.2, 0.71, 0.0, 0.0, 0.0, 0.67, 0.67, 0.67, -10.36, -10.36, -10.09, -9.8, -9.8, -9.8, -9.5, -9.5, -9.5, -8.87, -8.87, -8.22, -8.22, -7.57, -6.9, -6.9, -6.46, -6.46, -6.0, -5.8, -5.32, -5.32, -5.14, -4.65, -4.65, -3.99, -4.17, -3.86, -3.02, -2.9, -2.87, -2.87, -2.87, -2.35, -2.35, -2.25, -1.71, -1.71, -1.73, -1.16, -1.18, -1.12, -1.2, -1.14, -1.14, -1.14, -0.56, 0.0, 0.0, 0.0, 0.0, 0.0, 0.0, 0.0, 0.0, 0.0, 0.0, 0.0, 0.0, 0.0, 0.0, 0.0, 0.54, 0.76, 1.74, 2.0, 2.41, 3.2, 3.79, 3.45, 1.9, 2.53, 3.6, 4.38, 4.69, 0.78, -3.88, -6.07, -6.32, -5.52, -4.18, -2.76, -1.41, -1.08, 0.0, 0.57, 1.69, 2.83, 2.18, 2.12, 1.47, 0.59, 0.0, 0.0, 0.64, 0.67, 0.67, 0.67, -10.36, -10.36, -10.09, -9.8, -9.8, -9.8, -9.5, -9.5, -9.5, -8.87, -8.87, -8.51, -7.96, -7.57, -6.9, -6.9, -6.46, -6.46, -6.0, -5.8, -5.32, -5.32, -4.81, -4.65, -4.65, -3.99, -4.17, -4.02, -3.53, -3.11, -2.77, -2.9, -2.9, -2.35, -2.35, -2.25, -1.71, -1.71, -1.73, -1.73, -1.11, -1.18, -1.12, -1.2, -1.14, -1.2, -0.56, 0.0, 0.0, 0.0, 0.0, 0.0, 0.0, 0.0, 0.0, 0.0, 0.0, 0.0, 0.0, 0.0, 0.0, 0.0, 1.19, 0.65, 0.88, 2.53, 3.95, 3.95, 3.39, 3.79, 3.35, 1.2, 0.83, 0.0, 0.78, 3.24, 1.55, -2.23, -4.52, -6.23, -4.7, -2.85, -1.36, -0.72, 0.0, 0.0, 0.57, 1.14, 1.5, 1.49, 1.55, 0.69, 0.0, 0.0, 0.0, 0.79, 0.65, 0.65, -10.09, -10.09, -9.8, -9.8, -9.8, -9.5, -9.5, -9.5, -9.5, -8.87, -8.59, -8.23, -8.23, -7.96, -7.57, -6.9, -6.9, -6.46, -6.46, -5.8, -5.8, -5.32, -5.32, -4.65, -4.65, -4.13, -3.99, -4.17, -3.99, -3.5, -2.87, -2.87, -2.9, -2.35, -2.35, -2.25, -2.25, -1.71, -1.73, -1.73, -1.65, -1.18, -1.12, -1.12, -1.12, -1.12, -0.56, -0.56, 0.0, 0.0, 0.0, 0.0, 0.0, 0.0, 0.0, 0.0, 0.0, 0.0, 0.0, 0.0, 0.0, 0.0, 1.19, 1.05, 1.47, 3.63, 5.75, 5.75, 5.2, 4.65, 4.74, 3.45, 0.0, -0.8, -0.77, 2.41, 5.54, 3.07, -0.71, -4.61, -5.95, -4.73, -3.47, -2.14, -2.06, -1.74, -1.12, -0.56, 0.0, 0.0, 0.73, 0.73, 0.0, 0.0, -0.69, 0.0, 0.0, 0.0, -10.09, -10.09, -9.8, -9.8, -9.5, -9.5, -9.5, -9.5, -8.87, -8.87, -8.59, -8.23, -8.23, -8.23, -7.57, -7.16, -7.16, -6.46, -6.25, -5.8, -5.8, -5.8, -5.32, -5.14, -4.65, -4.65, -3.99, -3.99, -3.99, -3.5, -3.5, -2.84, -2.87, -2.75, -2.35, -2.35, -2.25, -2.25, -1.73, -1.73, -1.73, -1.11, -1.18, -1.12, -1.12, -1.12, -0.56, -0.56, -0.56, -0.56, -0.57, 0.0, 0.0, 0.0, 0.0, 0.0, 0.0, 0.0, 0.0, 0.59, 0.57, 1.1, 1.05, 1.05, 3.76, 4.74, 6.16, 5.75, 5.34, 5.21, 4.74, 3.4, 2.39, 0.0, 0.0, 1.56, 5.42, 7.84, 5.6, 0.78, -3.53, -5.04, -4.87, -4.0, -3.46, -2.87, -2.33, -2.15, -1.43, -0.74, 0.0, 0.0, 0.0, 0.0, -0.67, -0.73, 0.0, 0.0, -10.09, -10.09, -9.8, -9.5, -9.5, -9.5, -9.5, -9.21, -8.87, -8.59, -8.59, -8.23, -8.23, -8.23, -7.57, -7.57, -7.16, -6.92, -6.5, -6.5, -5.8, -5.8, -5.32, -5.14, -5.14, -4.65, -4.48, -3.99, -4.17, -3.5, -3.5, -3.37, -2.84, -2.87, -2.87, -2.35, -2.35, -2.25, -2.25, -1.73, -1.73, -1.65, -1.18, -1.12, -1.12, -0.56, -0.56, -0.56, -0.56, -0.56, -0.61, -0.57, -0.57, 0.0, 0.0, 0.0, 0.0, 0.0, 0.0, 0.0, 0.55, 0.61, 1.1, 1.66, 3.07, 4.43, 4.19, 4.8, 4.8, 4.19, 3.45, 3.4, 3.53, 3.14, 1.57, 0.75, 2.31, 4.62, 4.88, 3.72, 0.7, -1.39, -2.73, -3.16, -2.66, -2.12, -2.12, -1.41, -1.41, -0.72, -0.63, 0.0, 0.0, -0.78, -0.71, -1.4, -0.67, -0.67, -9.48, -9.48, -9.19, -9.19, -9.5, -9.5, -9.5, -8.87, -8.87, -8.59, -8.59, -8.23, -8.23, -7.85, -7.57, -7.57, -6.92, -6.92, -6.5, -6.5, -6.04, -6.04, -5.6, -5.14, -5.14, -5.14, -4.48, -4.68, -4.17, -4.02, -4.02, -3.5, -3.37, -2.99, -2.87, -2.87, -2.35, -2.35, -2.25, -1.81, -1.73, -1.73, -1.75, -0.71, -0.57, -0.56, -1.18, -1.18, -1.12, -0.56, -0.56, -0.57, -0.57, -0.57, -0.54, 0.0, 0.0, 0.0, 0.0, 0.0, 0.0, 0.56, 1.1, 1.66, 1.49, 3.22, 1.9, 2.6, 3.83, 3.48, 3.47, 3.4, 4.66, 5.92, 4.58, 1.55, 0.0, -0.74, -0.8, 0.0, 1.44, 2.15, 0.68, -0.7, -1.84, -1.13, -1.27, -1.27, -1.27, -0.59, -0.59, 0.0, 0.0, -0.73, -0.73, -0.76, -1.41, -1.36, -9.48, -9.48, -9.19, -9.19, -9.19, -8.87, -8.59, -8.59, -8.59, -8.59, -8.23, -8.23, -8.23, -7.85, -7.57, -7.57, -6.92, -6.92, -6.5, -6.5, -6.27, -5.83, -5.83, -5.83, -5.36, -5.36, -4.68, -4.68, -4.68, -4.02, -4.02, -4.02, -3.53, -3.53, -2.87, -2.87, -2.75, -2.35, -2.25, -2.25, -1.73, -1.73, -1.75, -0.71, -0.57, -1.18, -1.11, -1.18, -1.12, -1.12, -0.61, -0.57, -0.57, -0.57, -0.57, -0.58, 0.0, 0.0, 0.0, 0.0, 0.0, 0.61, 1.1, 0.87, 1.66, 2.73, 3.48, 3.58, 3.58, 3.16, 3.35, 3.45, 3.35, 5.48, 7.88, 6.97, 1.54, -2.28, -4.24, -3.52, -1.4, 0.0, 0.72, 0.68, 0.0, 0.0, 0.0, 0.0, -0.59, -0.59, -0.59, -0.59, -0.59, -0.73, -0.73, -1.23, -1.35, -1.41, -9.48, -9.48, -9.19, -8.87, -8.87, -8.87, -8.59, -8.59, -8.59, -8.23, -8.23, -8.23, -8.23, -7.85, -7.57, -7.32, -6.92, -6.92, -6.5, -6.27, -6.27, -5.83, -5.83, -5.83, -5.36, -5.17, -5.17, -4.68, -4.68, -4.51, -4.02, -4.02, -4.05, -3.53, -3.39, -3.39, -3.03, -2.9, -2.35, -2.25, -2.39, -1.73, -1.65, -1.67, -0.76, -1.11, -1.73, -1.75, -1.67, -1.2, -1.14, -1.14, -0.57, -0.57, -0.54, -0.58, -0.58, 0.0, 0.0, 0.0, 0.0, 0.61, 1.14, 1.14, 1.19, 2.73, 1.49, 2.21, 1.58, 2.41, 2.53, 2.6, 3.2, 4.88, 8.93, 11.8, 10.12, 4.58, 0.0, -1.88, -2.23, -2.0, -1.36, 0.0, 0.73, 0.0, 0.0, 0.0, -0.7, -0.76, -1.41, -1.41, -1.41, -2.2, -1.52, -1.41, -1.41, -1.35, -9.48, -9.48, -8.87, -8.87, -8.87, -8.87, -8.59, -8.59, -8.23, -8.23, -8.23, -8.23, -7.85, -7.85, -7.57, -7.32, -6.92, -6.92, -6.5, -6.27, -6.27, -5.83, -5.83, -5.83, -5.17, -5.17, -5.17, -4.68, -4.68, -4.51, -4.51, -4.21, -4.05, -4.05, -3.39, -3.39, -3.57, -2.9, -2.9, -2.77, -2.39, -2.28, -2.28, -2.28, -1.73, -1.52, -1.75, -1.67, -1.78, -1.14, -1.14, -1.14, -0.57, -0.54, -0.58, -0.58, -0.58, 0.0, 0.0, 0.0, 0.0, 0.57, 0.0, 1.19, 1.08, 1.08, 1.6, 2.48, 1.98, 2.68, 2.4, 2.6, 2.32, 4.47, 6.95, 9.91, 12.21, 10.86, 8.0, 3.7, 0.61, 0.0, 0.0, 0.0, 0.0, 0.0, -0.69, -0.69, -1.44, -1.44, -2.26, -2.04, -2.88, -3.09, -3.27, -3.09, -2.35, -2.35, -8.58, -8.58, -8.58, -8.58, -8.87, -8.87, -8.23, -8.23, -8.23, -8.23, -8.23, -7.85, -7.85, -7.57, -7.57, -6.92, -6.92, -6.92, -6.5, -6.27, -6.27, -5.83, -5.83, -5.83, -5.17, -5.17, -5.17, -5.17, -4.51, -4.51, -4.72, -4.21, -4.05, -4.05, -3.89, -3.57, -3.42, -3.42, -2.9, -2.77, -2.93, -2.39, -2.28, -2.28, -2.39, -1.71, -1.1, -1.11, -1.12, -1.12, -1.2, -1.14, -1.14, -1.14, -0.58, -0.58, -0.55, 0.0, 0.0, 0.0, 0.0, 0.0, 0.53, 0.0, 0.0, 1.41, 1.41, 1.27, 1.74, 2.41, 1.7, 1.7, 2.4, 4.11, 4.74, 4.6, 7.0, 9.6, 11.58, 11.16, 9.92, 7.76, 6.24, 4.24, 2.13, 0.76, 0.0, -1.45, -2.18, -2.12, -2.82, -2.72, -2.8, -3.79, -3.09, -3.0, -3.0, -3.0, -8.58, -8.58, -8.58, -8.58, -8.24, -8.24, -8.23, -7.96, -7.96, -8.23, -7.85, -7.59, -7.59, -7.32, -7.32, -6.92, -6.92, -6.92, -6.5, -6.27, -6.27, -5.83, -5.83, -5.62, -5.17, -5.17, -5.4, -5.2, -4.72, -4.72, -4.72, -4.05, -4.05, -4.05, -3.89, -3.57, -3.42, -3.42, -3.42, -2.93, -2.93, -2.93, -2.28, -2.28, -2.28, -1.71, -1.71, -1.16, -1.16, -1.18, -1.12, -1.12, -1.2, -1.14, -1.14, -0.58, -0.55, 0.0, 0.0, 0.0, 0.0, 0.0, 0.0, 0.0, 0.0, 0.0, 1.41, 1.41, 1.58, 1.66, 0.88, 0.81, 2.95, 4.54, 4.01, 4.03, 4.58, 7.27, 10.34, 12.76, 14.72, 14.34, 12.72, 9.69, 6.35, 4.11, 1.52, 0.0, -2.11, -3.11, -1.94, -1.94, -2.73, -3.11, -3.11, -3.22, -3.22, -3.22, -8.58, -8.58, -8.58, -8.24, -8.24, -7.96, -7.96, -7.96, -7.59, -7.59, -7.59, -7.59, -7.59, -7.32, -7.32, -6.92, -6.92, -6.92, -6.92, -6.27, -6.27, -5.83, -5.83, -5.62, -5.62, -5.4, -5.4, -5.2, -4.72, -4.72, -4.72, -4.54, -4.05, -3.89, -4.08, -3.57, -3.42, -3.42, -3.42, -2.93, -2.93, -2.93, -2.8, -2.8, -2.28, -2.28, -1.73, -1.73, -1.16, -1.16, -1.11, -1.18, -1.12, -1.12, -1.2, -0.58, -0.58, -0.59, 0.0, 0.0, 0.0, 0.0, 0.0, 0.0, 0.0, 0.0, 1.08, 1.8, 1.24, 1.66, 1.3, 1.66, 4.6, 5.21, 5.15, 4.95, 4.71, 5.38, 8.03, 11.14, 13.5, 14.72, 12.76, 10.29, 7.82, 6.43, 4.95, 2.18, -0.69, -1.8, -3.22, -2.51, -3.07, -3.43, -3.07, -2.84, -2.84, -2.84, -8.58, -8.58, -8.58, -8.24, -8.24, -7.96, -7.96, -7.59, -7.59, -7.59, -7.59, -7.59, -7.59, -7.32, -6.92, -6.92, -6.92, -6.92, -6.92, -6.27, -6.27, -6.27, -5.83, -5.86, -5.86, -5.4, -5.4, -5.2, -5.2, -4.72, -4.72, -4.54, -4.05, -4.08, -4.08, -3.57, -3.42, -3.42, -3.42, -3.45, -2.93, -2.93, -2.8, -2.8, -2.28, -2.28, -2.28, -1.73, -1.73, -1.73, -1.11, -1.11, -1.18, -1.18, -1.12, -1.14, -0.58, -0.55, -0.56, 0.0, 0.0, 0.0, 0.0, 0.0, 0.0, 0.0, 1.19, 1.8, 1.66, 0.81, 1.7, 4.11, 5.34, 5.75, 4.81, 5.06, 4.71, 5.3, 6.21, 8.84, 11.83, 13.02, 11.66, 9.7, 8.51, 6.52, 4.29, 2.8, 0.0, -1.04, -2.99, -2.53, -2.84, -3.49, -2.84, -2.86, -2.86, -2.86, -8.58, -8.58, -8.58, -8.24, -8.24, -7.96, -7.96, -7.59, -7.59, -7.59, -7.59, -7.59, -7.59, -7.32, -6.92, -6.92, -6.92, -6.92, -6.92, -6.5, -6.27, -6.27, -6.53, -5.86, -5.86, -5.86, -5.4, -5.2, -5.2, -5.2, -4.72, -4.54, -4.54, -4.08, -4.08, -4.08, -3.42, -3.42, -3.42, -3.45, -2.93, -2.93, -2.8, -2.8, -2.8, -2.28, -2.28, -2.28, -1.73, -1.65, -1.65, -1.75, -1.18, -1.18, -1.12, -1.12, -1.14, -0.58, -0.55, -0.56, 0.0, 0.0, 0.0, 0.0, 0.53, 0.0, 1.19, 1.41, 1.55, 2.53, 3.35, 4.84, 5.2, 4.8, 4.46, 4.81, 4.95, 5.64, 6.31, 7.82, 8.56, 10.35, 11.58, 12.62, 10.38, 7.14, 3.57, 1.36, 0.74, -0.57, -0.95, -2.17, -2.91, -2.8, -2.6, -2.24, -2.24, -2.24, -8.58, -8.58, -8.58, -8.24, -8.24, -7.96, -7.96, -7.59, -7.59, -7.59, -7.59, -7.59, -7.59, -7.32, -6.92, -6.92, -6.92, -6.92, -6.92, -6.92, -6.27, -6.53, -6.53, -5.86, -5.86, -5.86, -5.86, -5.2, -5.2, -5.2, -5.2, -4.54, -4.54, -4.57, -4.08, -4.08, -3.91, -3.42, -3.42, -3.45, -2.93, -2.93, -2.8, -2.8, -2.8, -2.28, -2.28, -2.28, -2.28, -1.65, -1.75, -1.75, -1.75, -1.75, -1.18, -1.12, -1.2, -1.14, -0.58, -0.59, -0.56, 0.0, 0.0, 0.0, 0.0, 0.0, 1.19, 1.41, 2.48, 1.49, 1.49, 3.48, 3.93, 4.57, 5.09, 5.21, 5.06, 5.89, 7.18, 7.08, 6.97, 8.5, 13.0, 15.08, 12.62, 7.22, 3.52, 1.39, 0.57, 0.6, 0.65, -0.0, -1.2, -1.2, -1.26, -0.54, -0.54, -0.54, -8.87, -8.87, -8.87, -8.24, -8.24, -7.96, -7.96, -7.59, -7.59, -7.59, -7.59, -7.59, -7.59, -7.32, -6.92, -6.92, -6.92, -6.92, -6.92, -6.92, -6.27, -6.53, -6.53, -6.29, -5.86, -5.86, -5.86, -5.64, -5.2, -5.2, -5.2, -5.0, -4.76, -4.57, -4.57, -4.08, -3.91, -3.91, -3.42, -3.45, -2.93, -2.93, -2.93, -2.8, -2.8, -2.8, -2.28, -2.28, -2.28, -2.28, -2.3, -1.75, -1.75, -1.75, -1.75, -1.12, -1.12, -1.14, -1.14, -0.58, -0.59, -0.56, 0.0, 0.0, 0.0, 0.0, 0.81, 1.4, 1.49, 1.49, 0.87, 0.98, 3.22, 4.85, 5.75, 5.75, 5.46, 5.77, 7.02, 7.59, 7.08, 7.73, 10.98, 13.61, 11.29, 6.64, 1.39, 0.0, 0.54, 1.2, 1.61, 1.33, 0.61, -0.0, -0.0, -0.0, -0.0, -0.0, -8.87, -8.87, -8.87, -8.24, -8.24, -7.96, -7.96, -7.59, -7.59, -7.59, -7.59, -7.59, -7.59, -7.32, -6.92, -6.92, -6.92, -6.92, -6.92, -6.92, -6.68, -6.53, -6.53, -6.29, -5.86, -5.86, -5.86, -5.64, -5.2, -5.2, -5.2, -5.0, -4.76, -4.76, -4.57, -4.57, -3.91, -3.91, -4.12, -3.61, -3.45, -2.93, -2.93, -2.8, -2.8, -2.8, -2.28, -2.28, -2.28, -2.42, -2.3, -2.3, -1.75, -1.75, -1.75, -1.67, -1.67, -1.14, -1.14, -1.16, -0.55, -0.56, -0.61, 0.0, 0.0, 0.0, 0.88, 1.66, 1.49, 1.49, 0.88, 0.87, 1.9, 4.92, 5.36, 5.59, 5.82, 5.82, 6.44, 7.35, 7.18, 7.48, 8.12, 8.5, 7.27, 2.16, 0.68, 0.0, 0.0, 0.57, 1.34, 1.4, 1.13, 0.7, 0.61, 0.61, 0.61, 0.61, -8.87, -8.87, -8.87, -8.53, -7.96, -7.96, -7.96, -7.59, -7.59, -7.59, -7.59, -7.59, -7.59, -6.92, -6.92, -6.92, -6.92, -6.92, -6.92, -6.92, -6.94, -6.53, -6.53, -6.29, -6.29, -5.86, -5.86, -5.64, -5.64, -5.2, -5.2, -5.0, -5.23, -4.76, -4.57, -4.57, -3.91, -4.12, -4.12, -4.12, -3.45, -3.45, -3.45, -2.93, -2.8, -2.8, -2.8, -2.28, -2.28, -2.42, -2.3, -2.3, -2.3, -1.75, -1.75, -1.67, -1.78, -1.78, -1.14, -1.16, -1.16, -0.59, -0.56, 0.0, 0.0, 0.0, 0.0, 0.79, 1.66, 1.66, 1.33, 1.49, 1.9, 3.58, 4.47, 4.85, 5.34, 5.43, 5.46, 5.69, 6.24, 6.42, 6.31, 5.48, 2.24, 1.45, 0.71, 0.0, -0.71, -0.57, 0.0, -0.0, -0.0, 0.7, 0.61, 0.61, 0.61, 0.61, -8.87, -8.87, -8.87, -8.23, -7.96, -7.96, -7.96, -7.59, -7.59, -7.59, -7.59, -7.59, -7.59, -6.92, -6.92, -6.92, -6.92, -6.92, -6.92, -6.92, -7.19, -6.53, -6.53, -6.29, -6.29, -5.86, -5.86, -5.86, -5.64, -5.2, -5.2, -5.2, -5.23, -4.76, -4.57, -4.57, -4.57, -3.91, -4.12, -4.12, -3.94, -3.45, -3.45, -3.45, -2.8, -2.8, -2.8, -2.8, -2.28, -2.42, -2.42, -2.3, -2.3, -2.3, -1.75, -1.67, -1.78, -1.78, -1.69, -1.81, -1.16, -1.18, -0.56, -0.61, 0.0, 0.0, 0.0, 0.0, 0.0, 0.79, 0.81, 1.55, 2.98, 3.58, 3.95, 4.47, 5.29, 5.75, 4.81, 4.74, 5.69, 6.24, 6.31, 2.4, 2.24, 2.19, 1.42, 0.65, -1.2, -2.49, -2.21, -2.24, -0.61, -0.0, -0.0, 0.54, 0.54, 0.54, -8.87, -8.87, -8.87, -8.23, -8.23, -7.96, -7.96, -7.59, -7.59, -7.59, -7.59, -7.59, -7.59, -6.92, -6.92, -6.92, -6.92, -6.92, -6.92, -6.92, -6.92, -6.53, -6.53, -6.29, -6.29, -5.86, -5.86, -5.86, -5.86, -5.2, -5.2, -5.2, -5.23, -4.76, -4.76, -4.57, -4.57, -3.91, -4.12, -4.12, -4.12, -3.45, -3.45, -3.45, -3.45, -3.3, -2.8, -2.8, -2.8, -2.8, -2.42, -2.42, -2.3, -2.3, -2.3, -2.19, -1.78, -1.78, -1.69, -1.81, -1.71, -1.09, -1.18, -0.56, -0.57, 0.0, 0.0, 0.0, 0.0, 0.0, 0.0, 0.81, 2.6, 3.47, 3.6, 3.58, 3.58, 5.2, 4.81, 4.81, 5.15, 6.01, 5.38, 5.38, 5.03, 4.32, 2.13, 0.59, -1.79, -3.58, -3.53, -2.6, -0.61, -0.0, -0.0, 0.95, 0.95, 0.95, -8.87, -8.87, -8.87, -8.23, -8.23, -7.96, -7.96, -7.59, -7.59, -7.59, -7.59, -7.59, -7.59, -7.32, -6.92, -6.92, -6.92, -6.92, -6.92, -6.92, -6.92, -6.27, -6.53, -6.53, -6.29, -5.86, -5.86, -5.86, -5.86, -5.64, -5.2, -5.2, -5.0, -5.23, -4.76, -4.57, -4.57, -4.57, -3.91, -4.12, -4.12, -4.12, -3.45, -3.45, -3.45, -3.45, -3.3, -2.8, -2.8, -2.8, -2.8, -2.42, -2.3, -2.3, -2.3, -2.3, -2.33, -1.78, -1.69, -1.81, -1.71, -1.71, -1.18, -1.1, -0.57, -0.53, -0.53, -0.61, 0.0, 0.0, 0.0, 0.0, 1.74, 3.13, 3.6, 3.2, 4.47, 4.57, 4.84, 5.21, 5.21, 5.06, 5.51, 6.97, 6.31, 4.67, 2.31, 0.6, -1.16, -2.91, -2.91, -1.0, -0.0, -0.0, 1.2, 2.24, 2.24, 2.24, -8.87, -8.87, -8.87, -8.23, -8.23, -7.96, -7.96, -7.59, -7.59, -7.59, -7.59, -7.59, -7.59, -7.32, -7.32, -6.92, -6.92, -6.92, -6.92, -6.92, -6.5, -6.27, -6.27, -6.53, -6.29, -5.86, -5.86, -5.86, -5.86, -5.64, -5.2, -5.2, -5.2, -5.0, -4.76, -4.76, -4.57, -4.57, -4.57, -3.91, -4.12, -4.12, -4.12, -3.45, -3.45, -3.45, -3.45, -3.3, -2.97, -2.97, -2.97, -2.97, -2.42, -2.3, -2.3, -2.3, -2.33, -2.33, -2.21, -1.81, -1.71, -1.71, -1.73, -1.1, -1.2, -1.12, -0.58, -0.59, -0.61, 0.0, 0.0, 0.0, 0.79, 3.13, 3.47, 2.6, 1.34, 3.47, 3.58, 4.19, 4.19, 3.9, 4.0, 3.87, 4.59, 3.2, 2.11, -0.0, -0.61, -0.59, -0.0, 0.53, 0.99, 1.34, 2.17, 2.91, 2.91, 2.91, -8.87, -8.87, -8.87, -8.23, -8.23, -8.23, -7.96, -7.59, -7.59, -7.59, -7.59, -7.59, -7.59, -7.32, -7.32, -6.92, -6.92, -6.92, -6.92, -6.92, -6.5, -6.27, -6.27, -6.53, -5.86, -5.86, -5.86, -5.86, -5.86, -5.64, -5.2, -5.2, -5.2, -5.0, -4.54, -4.76, -4.76, -4.57, -4.57, -4.57, -3.91, -3.91, -4.12, -4.12, -3.45, -3.45, -3.45, -3.3, -2.8, -2.97, -2.97, -2.97, -2.97, -2.3, -2.3, -2.3, -2.33, -2.33, -2.21, -2.37, -1.71, -1.71, -1.73, -1.73, -1.1, -1.12, -1.12, -1.14, -1.16, -0.76, 0.0, -0.81, 0.0, 2.97, 3.04, 2.97, 0.89, 2.54, 2.53, 3.22, 2.53, 2.6, 0.79, 0.79, 0.8, 0.8, 1.38, 0.66, -0.65, -0.0, 0.61, 1.58, 1.34, 1.86, 3.07, 3.45, 3.45, 3.45, -8.87, -8.87, -8.87, -8.23, -8.23, -8.23, -8.23, -7.59, -7.59, -7.59, -7.59, -7.59, -7.59, -7.32, -7.32, -6.92, -6.92, -6.92, -6.92, -6.92, -6.5, -6.5, -6.27, -6.53, -6.08, -5.86, -5.86, -5.86, -5.86, -5.64, -5.2, -5.2, -5.2, -5.2, -5.0, -4.54, -4.76, -4.76, -4.57, -4.57, -4.57, -4.08, -3.91, -4.12, -3.94, -3.45, -3.45, -3.45, -3.3, -2.97, -2.97, -2.97, -2.97, -2.83, -2.3, -2.3, -2.33, -2.33, -2.21, -2.37, -2.23, -1.71, -1.84, -1.73, -1.73, -1.76, -1.12, -1.14, -1.05, -0.61, -0.76, -0.7, 0.0, 1.9, 2.4, 2.4, 1.79, 1.6, 2.21, 2.53, 2.0, 0.82, 0.0, -0.79, -0.78, 0.0, 0.0, 0.69, 0.0, 0.0, 0.89, 1.6, 1.24, 1.88, 2.86, 3.84, 3.84, 3.84, -8.87, -8.87, -8.87, -8.23, -8.23, -8.23, -8.23, -7.85, -7.59, -7.59, -7.59, -7.59, -7.59, -7.57, -7.32, -6.92, -6.92, -6.92, -6.92, -6.92, -6.92, -6.5, -6.27, -6.27, -6.27, -6.08, -5.86, -5.86, -5.86, -5.86, -5.2, -5.2, -5.2, -5.2, -5.0, -4.54, -4.54, -4.76, -4.76, -4.57, -4.57, -4.08, -3.91, -4.12, -4.12, -3.45, -3.45, -3.45, -3.45, -3.3, -2.97, -2.97, -2.97, -2.83, -2.83, -2.3, -2.33, -2.33, -2.21, -2.37, -2.23, -2.23, -2.4, -1.73, -1.73, -1.63, -1.76, -1.12, -1.14, -1.14, -1.84, -0.7, 0.0, 0.0, 1.26, 1.0, 0.89, 0.95, 0.85, 1.98, 0.98, 0.0, 0.0, -0.76, -0.78, -0.78, 0.0, 0.72, 1.42, 1.39, 1.36, 1.23, 1.33, 1.4, 2.53, 2.79, 2.79, 2.79, -8.87, -8.87, -8.87, -8.23, -8.23, -8.23, -8.23, -7.85, -7.85, -7.85, -7.85, -7.85, -7.57, -7.57, -7.32, -6.92, -6.92, -6.92, -6.92, -6.92, -6.92, -6.5, -6.5, -6.27, -6.27, -6.27, -6.08, -5.86, -5.86, -5.86, -5.64, -5.2, -5.2, -5.2, -5.2, -5.0, -5.0, -4.76, -4.76, -4.76, -4.57, -4.57, -4.08, -3.91, -4.12, -4.12, -3.45, -3.45, -3.45, -3.3, -3.3, -2.97, -2.97, -2.97, -2.83, -2.83, -2.33, -2.33, -2.33, -2.37, -2.37, -2.23, -2.4, -2.26, -1.73, -1.73, -1.76, -1.76, -1.65, -1.8, -1.14, -0.79, -0.76, 0.0, 0.0, -0.0, -0.0, 0.0, 0.0, 0.0, 0.0, 0.0, 0.0, -0.82, -0.77, 0.0, 0.78, 1.58, 2.8, 3.42, 3.41, 2.88, 2.12, 1.35, 1.33, 2.07, 2.07, 2.07, -8.87, -8.87, -8.87, -8.23, -8.23, -8.23, -8.23, -7.85, -7.85, -7.85, -7.85, -7.57, -7.57, -7.57, -7.32, -6.92, -6.92, -6.92, -6.92, -6.92, -6.92, -6.92, -6.5, -6.27, -6.27, -6.27, -5.83, -5.86, -5.86, -5.86, -5.86, -5.64, -5.2, -5.2, -5.2, -5.0, -5.23, -4.76, -4.76, -4.76, -4.57, -4.57, -4.57, -4.08, -3.91, -4.12, -3.61, -3.45, -3.45, -3.45, -3.3, -2.97, -2.97, -2.97, -2.83, -2.83, -2.86, -2.86, -2.33, -2.37, -2.37, -2.23, -2.4, -2.4, -2.26, -2.26, -1.73, -1.76, -1.76, -1.65, -1.23, -1.14, -1.14, 0.0, 0.87, 1.34, -0.0, 0.0, 0.0, 0.0, 0.0, 0.0, 0.0, 0.0, 0.0, 0.79, 2.37, 3.06, 3.93, 4.62, 5.41, 4.76, 4.24, 2.7, 1.93, 1.55, 1.55, 1.55, -8.87, -8.87, -8.87, -8.23, -8.23, -8.23, -8.23, -7.85, -7.85, -7.85, -7.85, -7.57, -7.57, -7.57, -7.32, -6.92, -6.92, -6.92, -6.92, -6.92, -6.92, -6.92, -6.5, -6.27, -6.27, -6.27, -5.83, -5.86, -5.86, -5.86, -5.86, -5.64, -5.2, -5.2, -5.2, -5.0, -5.23, -4.76, -4.76, -4.76, -4.57, -4.57, -4.57, -4.08, -3.91, -4.12, -3.61, -3.45, -3.45, -3.45, -3.3, -2.97, -2.97, -2.97, -2.83, -2.83, -2.86, -2.86, -2.33, -2.37, -2.37, -2.23, -2.4, -2.4, -2.26, -2.26, -1.73, -1.76, -1.76, -1.65, -1.23, -1.14, -1.14, 0.0, 0.87, 1.34, 0.0, 0.0, 0.0, 0.0, 0.0, 0.0, 0.0, 0.0, 0.0, 0.78, 2.3, 3.96, 5.51, 5.51, 6.21, 6.14, 5.51, 4.71, 3.85, 2.31, 2.31, 2.31]}]